GFSMW_925_thetae_000.txt.gz
Theta_e
316 319 320 322 326 327 326 327 327 325 318 315 316 314 313 313 312 311 311 311 311 311 310 309 309 308 308 306 305 305 305 304 304 304 304 304 303 305 305 308 307 304 305
316 315 315 315 315 315 314 315 315 315 315 315 314 313 312 312 312 312 312 311 309 307 307 306 305 305 305 305 304 303 304 305 305 306 306 303 304 304 305 306 304 301 300
316 315 314 314 314 313 314 313 313 313 312 312 312 311 311 312 312 311 310 309 307 305 304 303 302 302 302 302 302 302 302 304 305 306 305 303 302 301 304 302 302 300 299
316 315 314 315 314 313 313 313 313 312 312 312 311 311 311 311 308 306 307 307 304 303 302 301 301 301 301 301 301 301 301 301 303 303 303 302 301 301 301 300 300 299 297
314 313 315 315 315 314 314 313 313 312 312 311 311 311 310 306 306 307 305 304 302 301 300 300 300 301 300 300 299 300 301 300 301 300 300 299 299 299 298 297 296 296 296
313 314 316 316 315 314 314 313 313 313 311 311 310 310 307 306 306 303 302 301 301 300 300 300 300 299 299 298 297 297 297 296 296 296 297 297 298 297 297 296 296 295 296
313 313 314 315 315 314 314 313 313 313 312 311 309 308 306 304 302 302 303 302 300 300 299 300 299 299 298 297 297 296 294 293 293 294 294 295 295 295 295 296 295 295 295
312 312 313 312 312 312 312 312 311 310 310 306 304 303 303 303 304 304 303 301 300 300 299 299 298 297 294 293 292 292 292 291 290 291 292 292 293 294 293 294 293 294 294
309 310 310 310 310 310 309 309 309 307 305 304 304 306 306 305 305 303 302 300 300 299 296 295 295 295 294 292 291 290 289 289 289 289 290 291 291 290 291 291 290 290 292
309 308 309 309 308 306 306 306 307 307 306 306 306 304 303 302 301 301 301 300 299 297 295 294 294 293 291 290 289 289 289 289 290 290 290 288 287 286 286 288 291 291 290
308 307 307 306 305 305 305 304 304 305 303 302 304 304 305 303 301 300 299 297 296 295 294 294 293 291 290 289 289 289 289 289 289 287 286 286 285 285 285 284 285 289 291
308 307 306 305 303 303 300 298 298 297 296 296 299 303 304 303 300 299 297 297 295 293 293 291 290 290 289 289 289 289 288 288 286 286 285 285 285 284 284 284 284 286 286
306 305 304 303 301 298 297 297 296 295 295 294 294 294 295 296 300 298 295 293 292 292 293 290 289 289 289 289 288 288 286 286 285 285 284 282 281 281 281 282 284 285 285
305 304 303 302 298 298 297 296 295 294 294 294 293 294 296 297 298 294 294 293 292 292 292 289 288 288 289 288 287 286 286 285 284 283 283 281 280 281 282 284 285 285 286
305 304 302 300 297 297 295 295 294 294 293 293 293 294 295 296 296 297 296 294 293 292 289 288 288 289 289 288 286 285 285 285 284 283 282 280 280 281 282 283 284 284 284
304 303 301 297 296 295 294 294 293 293 293 292 293 294 294 294 295 295 294 293 293 289 288 289 288 289 288 287 286 286 285 284 284 282 281 280 280 280 281 281 282 283 283
303 301 298 296 295 294 294 294 293 293 293 293 294 293 293 294 293 294 294 294 291 291 290 289 289 288 287 286 285 285 284 284 282 281 280 280 279 280 280 280 281 281 282
302 299 296 295 295 294 294 293 293 293 293 293 293 293 293 292 293 293 292 291 292 291 289 288 288 286 285 285 285 284 283 282 281 280 279 279 279 279 279 280 281 281 281
299 297 296 295 294 294 294 293 293 293 293 293 293 293 292 292 292 293 293 292 291 288 288 287 285 284 284 283 283 281 280 279 278 278 278 278 278 279 280 280 280 280 279
298 297 296 295 294 294 294 293 293 293 292 292 292 291 292 292 292 292 292 291 287 288 287 285 283 282 281 281 280 279 278 277 277 277 277 277 278 278 280 280 280 279 279
297 296 295 294 294 294 293 293 293 293 292 291 291 291 291 291 290 290 289 288 288 286 285 283 282 280 279 278 278 278 277 277 277 276 277 277 278 279 278 279 279 279 280
294 294 294 294 294 293 293 293 293 292 292 291 290 290 290 289 289 289 289 288 286 285 284 283 281 280 279 277 277 277 277 277 276 276 276 277 277 277 278 278 278 279 279
293 293 293 293 293 292 292 292 293 292 292 291 289 289 289 289 289 289 288 286 285 285 283 282 281 280 279 278 277 277 277 277 277 276 277 276 276 276 277 277 277 277 277
293 293 292 292 292 292 292 293 292 292 291 290 289 289 288 289 289 288 286 286 285 284 284 282 282 280 279 278 277 277 277 277 276 276 276 275 275 275 276 276 276 277 277
292 292 291 291 291 292 292 291 291 291 291 290 289 288 288 288 288 286 286 285 284 284 284 283 282 281 279 278 278 278 276 277 275 275 275 275 275 274 274 274 275 276 276
291 290 291 291 291 291 289 289 290 290 289 289 289 289 288 288 287 286 285 285 284 284 284 284 283 282 279 278 279 278 276 275 275 274 274 274 274 274 274 273 274 274 275

GFSMW_925_thetae_003.txt.gz
Theta_e
314 315 319 323 326 326 329 327 325 317 318 314 314 314 313 311 311 311 310 309 308 307 307 306 305 305 304 303 302 302 302 302 302 302 302 301 301 301 304 304 303 301 300
314 314 314 317 319 316 318 318 318 314 315 315 314 314 312 311 311 309 309 308 307 306 306 305 303 302 301 301 301 301 301 301 301 304 303 301 302 303 302 302 301 299 299
314 314 312 313 314 315 314 313 312 312 312 314 312 311 311 311 310 307 306 305 304 304 302 301 300 300 301 300 300 300 301 301 302 302 302 300 300 299 301 299 300 297 298
313 312 311 311 312 311 312 312 312 312 312 311 311 310 310 310 307 305 304 303 302 300 300 299 299 299 299 299 297 298 299 300 298 300 298 298 299 297 297 298 296 297 295
312 311 312 313 313 313 312 312 312 312 311 311 310 310 309 306 305 303 301 301 300 299 299 300 299 299 298 298 297 297 297 296 295 294 295 295 295 297 296 295 295 295 294
311 312 313 313 311 310 310 309 310 310 310 310 309 308 307 304 303 302 304 304 302 302 301 300 299 298 298 297 297 296 294 292 292 292 293 294 294 294 294 294 293 293 294
312 313 311 310 310 311 311 311 312 312 310 309 307 306 304 302 302 304 304 302 302 302 300 299 298 297 296 295 292 291 291 290 289 289 290 290 290 292 292 292 292 292 290
310 307 308 309 308 309 309 309 308 307 306 305 304 303 304 304 304 304 303 302 301 301 299 298 296 294 294 293 291 289 289 289 289 288 288 289 289 288 287 290 290 289 289
307 306 307 307 306 306 306 306 306 305 305 305 305 304 303 303 302 301 300 300 300 299 298 296 295 293 293 291 290 289 289 289 289 289 289 289 288 286 285 285 285 289 288
306 305 305 304 304 304 304 305 305 303 300 300 300 301 302 301 301 301 300 299 299 297 297 296 294 293 291 290 290 289 289 288 288 288 288 287 286 286 285 285 284 284 288
305 304 303 303 302 300 300 299 298 296 295 294 294 294 293 293 293 294 298 299 297 296 295 294 292 292 290 289 289 289 288 288 289 287 286 285 285 284 283 283 283 283 284
304 303 303 301 299 296 296 295 295 294 294 293 292 292 292 291 292 295 296 295 294 292 292 292 292 290 289 288 288 288 288 288 287 285 285 284 283 282 281 281 281 282 283
303 302 301 299 297 296 295 295 294 294 293 293 292 292 291 291 291 293 295 293 292 293 294 293 290 288 288 288 288 288 287 286 285 285 284 283 282 280 280 280 281 282 283
303 302 300 297 296 295 295 294 294 293 293 293 292 292 291 291 292 293 293 293 294 295 292 291 289 288 288 288 288 287 286 285 285 284 283 282 280 280 280 281 282 283 283
303 302 299 296 295 295 294 294 293 293 293 293 292 292 292 291 291 292 293 293 292 291 291 291 288 288 288 288 287 286 285 285 284 284 283 281 280 281 280 281 281 281 282
303 302 298 295 295 294 294 294 293 293 293 292 292 292 292 291 291 292 292 293 293 292 288 290 289 288 288 287 286 285 285 284 283 282 281 280 280 279 279 280 280 281 281
301 300 296 294 295 294 294 293 293 293 292 292 292 292 292 291 291 291 292 293 291 290 290 289 287 287 286 285 285 284 284 283 282 281 279 278 279 278 278 278 279 280 281
300 298 295 294 294 294 293 293 293 292 292 292 292 292 291 291 291 292 292 292 292 291 290 287 286 285 284 283 283 282 281 280 279 277 277 277 277 278 278 279 279 280 279
299 297 295 294 293 293 293 293 292 292 292 292 292 291 291 291 291 292 292 292 291 290 286 285 285 283 281 280 280 279 278 277 276 276 276 277 277 277 279 279 280 280 279
296 295 294 293 293 293 292 292 292 293 292 292 291 291 290 290 291 290 290 289 287 286 286 284 283 281 279 279 279 278 277 276 276 276 276 276 277 278 278 279 279 279 278
294 294 293 293 293 293 292 292 292 292 292 292 291 290 289 290 289 289 288 287 287 286 284 283 281 280 278 277 277 277 277 276 276 276 275 276 277 278 278 278 278 278 279
293 293 292 292 293 292 291 291 292 292 292 291 291 290 289 289 289 288 288 287 286 284 283 282 280 279 278 277 277 277 277 277 276 275 275 276 276 277 277 277 277 277 277
292 292 292 291 291 290 291 291 292 292 291 291 290 289 288 288 288 288 287 285 284 284 283 281 280 279 278 277 277 277 276 276 275 275 276 275 275 275 275 276 276 276 276
292 291 290 290 290 290 291 290 289 289 290 289 289 288 288 288 288 287 285 285 284 284 283 282 281 280 279 278 277 277 276 275 275 274 274 274 274 274 273 274 275 275 275
291 290 289 290 290 290 290 289 288 289 290 289 288 288 288 287 287 285 286 285 284 284 283 283 282 281 280 278 278 278 277 276 275 274 274 273 273 273 273 273 273 274 274
290 289 289 289 289 290 289 288 288 288 289 288 288 289 289 287 287 286 285 284 284 284 283 283 282 282 280 278 278 278 277 275 274 273 273 273 273 272 272 272 272 272 272

GFSMW_925_thetae_006.txt.gz
Theta_e
313 316 317 322 325 326 328 327 327 323 317 314 314 313 313 312 311 310 308 307 306 305 305 304 303 302 301 300 299 298 298 298 300 300 298 297 301 300 300 301 300 300 299
312 313 313 317 321 323 324 319 317 316 315 315 315 316 314 311 309 306 305 304 303 303 302 301 300 299 299 298 297 296 296 298 300 301 301 299 300 301 298 300 298 297 296
313 311 310 311 313 313 314 313 313 312 312 311 311 311 310 310 308 305 303 302 302 301 300 299 300 300 298 298 297 297 296 298 298 299 300 298 298 297 298 297 297 295 295
310 309 309 310 310 310 310 311 311 311 311 310 310 310 310 309 306 304 301 302 302 301 302 302 301 300 298 298 297 297 296 297 296 297 296 295 296 296 296 296 295 294 294
310 309 310 310 310 310 311 310 310 310 310 310 309 309 308 305 304 302 303 303 303 302 301 301 301 299 298 297 296 296 296 294 293 293 293 294 293 295 294 293 292 291 291
310 310 310 310 310 310 310 310 311 310 309 308 307 307 306 304 303 303 303 303 302 302 301 300 299 298 296 295 294 292 291 290 289 289 290 291 291 291 292 290 290 290 290
310 310 308 308 308 309 309 309 308 305 304 304 303 303 303 303 302 302 302 302 301 301 300 299 297 295 293 293 292 290 290 289 288 288 287 288 288 289 289 290 289 289 288
308 307 306 306 307 306 306 305 303 302 303 303 302 302 302 301 301 301 301 301 300 300 299 298 296 294 296 292 291 289 289 288 288 288 288 288 288 288 286 286 287 286 286
305 304 305 305 305 305 304 304 304 301 299 298 297 297 298 296 293 293 293 293 296 299 298 297 295 295 293 292 291 290 289 288 288 288 288 288 288 287 285 285 284 285 285
305 303 302 302 302 303 304 303 298 296 296 295 295 294 293 292 290 290 290 292 296 297 297 296 294 292 292 291 290 289 289 288 288 288 288 287 286 285 285 284 283 282 282
303 301 301 300 300 300 299 298 297 296 295 294 293 293 292 291 291 290 290 293 297 296 295 294 294 293 291 290 289 288 288 288 288 288 286 285 285 284 283 282 281 280 281
302 301 301 298 296 296 296 296 295 295 294 293 293 292 292 292 291 291 291 293 295 295 295 293 292 293 291 289 288 288 288 288 287 286 285 285 284 283 282 281 280 280 280
301 300 300 297 295 295 296 295 295 294 294 293 293 292 292 292 291 291 291 292 292 292 291 293 293 289 289 288 288 288 288 287 285 285 285 283 283 282 281 280 280 280 281
302 300 298 296 295 296 296 295 294 294 293 293 292 292 292 292 291 291 291 292 292 292 292 291 291 289 288 288 288 287 286 285 285 284 283 283 282 281 280 281 280 280 280
301 300 297 295 295 296 295 294 294 293 293 292 292 292 292 292 291 291 291 292 292 292 293 292 289 288 287 287 287 286 285 284 284 283 283 282 281 281 281 280 280 279 280
302 301 298 296 295 295 294 294 294 293 292 292 292 292 292 291 291 291 291 291 293 290 289 288 289 287 287 286 286 285 284 284 283 281 280 279 279 279 279 278 279 279 280
302 300 298 297 295 295 295 294 293 292 292 292 292 292 292 291 291 290 291 292 292 291 291 290 287 287 286 285 283 282 281 281 279 278 277 277 277 277 277 277 278 279 280
300 299 299 297 295 294 294 293 292 292 291 292 292 292 291 291 290 290 291 291 292 291 291 289 286 285 284 282 281 280 279 278 277 276 276 276 276 277 278 279 279 279 279
299 300 299 296 293 293 293 292 292 292 292 292 292 291 291 291 289 290 290 290 290 290 288 286 285 283 281 280 279 279 278 277 276 276 276 276 276 277 279 278 279 279 279
299 296 294 293 292 292 292 292 292 291 291 292 291 291 291 290 289 289 289 288 287 286 286 284 283 282 280 279 278 278 277 276 277 276 276 276 276 277 278 278 277 277 279
293 293 293 293 293 292 292 291 290 291 291 291 291 291 291 290 289 288 288 287 286 286 284 283 282 281 280 278 277 278 277 277 277 276 275 275 276 277 277 278 277 278 277
292 292 292 292 292 291 290 290 290 291 290 290 290 290 290 289 288 288 288 286 285 284 283 283 282 281 279 278 277 277 277 277 276 275 275 275 276 275 275 275 277 276 276
292 292 291 291 290 290 290 290 290 289 288 289 290 289 288 288 288 287 286 285 284 283 284 283 281 281 279 278 277 277 277 276 275 274 275 274 274 274 273 274 275 275 275
291 291 290 289 289 289 289 290 289 288 288 289 288 288 287 288 288 287 286 285 285 284 284 283 281 281 280 278 278 278 277 276 275 274 273 274 273 273 273 273 273 273 273
291 290 289 289 289 289 289 289 288 288 288 288 288 287 287 287 288 286 285 285 285 284 283 283 282 282 281 280 278 279 277 276 275 273 273 273 273 272 272 272 272 272 272
290 289 289 289 289 289 288 287 287 287 287 287 287 286 285 287 288 285 285 285 285 284 283 283 283 282 281 280 279 279 278 276 275 274 273 273 273 272 271 271 271 271 270

GFSMW_925_thetae_012.txt.gz
Theta_e
326 327 329 329 330 330 330 331 329 328 326 324 321 317 317 317 313 311 309 309 308 307 307 306 306 306 306 306 305 304 304 303 303 302 302 301 300 303 303 302 301 301 301
328 328 329 330 331 331 330 329 328 327 325 322 319 319 319 316 311 309 308 307 306 306 305 306 305 305 304 304 304 303 302 301 302 302 301 302 301 300 302 301 300 300 299
329 330 329 329 328 327 326 324 322 320 319 318 317 316 315 312 311 309 307 306 306 305 305 305 304 304 303 302 302 302 302 301 300 300 300 302 301 299 298 298 297 297 296
327 324 323 323 320 319 319 318 317 316 314 313 314 314 314 314 310 307 307 306 306 305 305 304 303 302 301 301 301 300 300 298 298 297 297 296 296 298 298 296 296 294 293
322 320 318 317 315 315 314 313 312 311 312 312 312 312 310 308 307 307 306 306 306 305 304 303 302 301 301 301 301 299 297 297 297 296 295 295 294 293 294 294 293 292 292
318 316 314 313 313 313 313 312 311 310 310 309 309 308 307 306 306 305 303 301 299 298 297 297 300 301 301 300 298 297 297 296 294 293 292 292 292 292 292 292 292 291 291
318 317 315 314 313 313 311 310 309 308 308 307 306 305 303 301 299 298 296 296 295 295 295 296 297 299 299 298 298 296 296 294 293 292 291 291 291 291 291 291 291 291 290
318 317 315 314 313 311 310 309 308 307 305 302 300 299 297 297 296 296 295 295 294 294 295 297 298 299 299 297 296 296 295 293 292 291 291 291 290 290 290 290 290 291 290
319 317 314 312 311 310 310 307 305 302 301 300 298 297 297 296 296 296 295 294 294 294 295 298 299 298 298 297 296 295 294 292 291 291 290 290 290 289 289 289 289 289 291
319 316 313 311 310 309 306 304 302 301 299 298 298 297 297 297 296 296 295 294 294 294 295 297 298 298 297 296 295 293 292 291 290 290 290 290 289 289 288 288 288 288 287
318 315 312 310 309 306 304 302 301 300 297 298 297 297 297 297 296 295 294 293 293 293 294 295 296 297 296 294 293 293 291 290 290 290 290 290 289 288 288 288 287 287 286
318 314 310 309 307 304 302 301 300 300 299 297 297 297 297 296 296 295 294 293 293 293 293 294 294 295 294 293 293 293 290 290 290 290 289 289 288 288 287 287 287 286 285
315 312 309 307 305 303 301 300 300 298 298 296 297 296 296 296 296 295 294 293 293 293 294 294 294 293 293 293 292 290 290 290 290 289 289 288 287 287 286 285 285 284 284
313 311 308 306 304 302 301 301 300 300 297 296 296 296 296 296 295 295 294 293 293 293 294 293 293 293 292 292 290 290 290 289 289 288 288 287 285 285 284 283 283 283 283
312 311 309 306 304 302 302 302 301 299 297 296 296 296 295 295 295 294 293 293 293 293 294 292 291 291 290 289 289 289 289 289 287 286 285 284 282 280 280 280 281 281 281
312 311 309 307 304 302 302 301 300 298 297 296 296 295 295 294 294 294 293 292 292 293 293 293 292 292 290 287 287 286 287 286 285 284 283 282 281 281 279 280 279 279 280
312 311 310 307 304 302 301 301 299 297 296 295 295 294 294 294 293 293 293 292 292 293 292 293 292 291 290 285 284 284 285 285 284 283 282 282 281 281 281 280 280 281 281
312 311 309 306 303 301 300 300 297 295 295 294 294 293 293 292 292 293 293 293 292 292 292 291 291 290 287 283 283 282 284 283 282 282 281 281 281 281 279 279 280 280 280
312 311 308 305 302 301 299 296 295 294 294 293 292 292 292 292 292 292 292 292 292 291 291 290 290 288 286 283 282 281 283 283 282 281 281 279 279 279 278 278 279 279 280
311 309 305 302 300 297 295 295 295 294 292 292 292 291 291 291 291 292 292 292 291 290 289 289 288 285 285 282 281 280 282 282 282 281 280 279 278 277 277 277 278 278 279
309 305 300 299 297 295 295 295 293 292 292 291 291 291 291 291 291 291 291 291 291 290 289 287 286 285 284 283 281 280 281 281 281 281 280 279 277 277 276 276 277 277 276
303 299 297 296 294 294 293 293 292 291 291 291 291 291 291 291 290 291 291 291 290 289 288 287 286 286 284 282 281 280 279 279 279 280 280 278 276 276 275 275 275 275 276
298 295 294 294 294 292 291 291 291 291 291 290 291 291 291 290 290 290 291 291 290 289 288 288 287 287 287 284 282 280 279 279 279 279 278 276 275 276 276 276 275 275 276
295 295 293 294 291 291 291 291 291 290 290 290 290 290 289 288 289 290 290 290 289 289 288 288 288 287 286 285 284 283 282 281 280 280 279 277 276 277 276 277 277 276 275
294 294 293 291 291 291 291 290 290 289 289 290 290 289 289 288 288 288 289 289 289 288 289 288 287 286 285 285 284 283 282 282 281 278 279 280 279 278 278 278 277 276 275
293 291 291 291 291 290 290 290 289 289 289 289 290 290 289 289 288 288 288 289 288 286 286 285 284 285 284 283 282 282 281 280 279 279 280 281 280 279 278 278 277 277 276

GFSMW_925_thetae_015.txt.gz
Theta_e
330 330 331 332 332 332 333 332 331 330 329 329 327 323 320 319 318 315 313 312 311 310 310 310 310 309 309 308 307 307 306 303 302 302 303 303 302 302 303 303 304 304 303
330 331 332 333 333 333 333 331 331 330 329 326 322 320 320 319 315 313 312 310 310 309 309 309 309 308 307 306 305 304 304 302 302 302 302 303 301 301 301 300 300 300 300
331 332 333 333 333 332 332 331 329 327 324 321 321 321 319 315 314 313 311 310 309 309 308 307 307 306 305 303 302 302 303 302 301 300 300 301 301 299 298 298 298 298 298
331 332 332 332 330 329 327 325 323 321 321 318 317 317 317 316 314 312 311 310 309 308 307 305 304 304 303 302 301 301 301 300 300 299 299 298 298 299 299 296 295 295 295
331 329 326 325 323 322 321 320 318 315 316 316 316 315 314 312 310 310 309 307 305 301 300 299 299 300 301 302 302 301 300 299 299 298 297 296 296 295 295 295 294 294 293
326 323 321 319 319 318 317 316 315 315 314 314 313 312 310 308 307 303 301 300 298 298 297 297 298 298 300 301 301 300 299 300 298 296 295 295 294 293 293 294 293 294 293
323 320 319 318 317 317 317 315 314 313 312 310 308 306 303 301 300 299 298 298 297 297 297 297 298 299 299 300 299 299 299 298 296 295 294 293 293 293 292 292 292 293 292
321 319 318 318 317 317 315 314 313 312 309 305 303 301 299 299 299 298 298 297 297 296 296 296 298 299 299 300 298 298 298 297 295 294 293 293 292 292 292 291 291 293 291
321 320 318 318 317 316 314 314 312 308 305 303 301 300 299 299 299 298 298 296 296 295 295 296 297 298 299 299 298 298 297 296 294 293 293 292 292 291 291 290 290 291 293
321 320 319 317 316 314 314 311 308 306 305 302 300 299 299 299 299 298 297 296 296 295 295 295 296 297 299 298 298 296 295 294 293 292 292 292 292 291 290 290 290 290 290
321 321 318 316 315 314 311 308 306 306 303 301 300 300 300 299 298 298 297 296 295 295 295 295 295 295 296 296 296 295 295 295 293 292 292 292 291 291 290 290 289 289 289
322 321 318 316 314 312 309 307 306 304 302 301 300 300 300 299 298 298 297 296 295 295 294 295 295 295 294 294 294 294 294 293 292 292 292 291 290 290 289 288 288 288 287
323 321 318 315 314 311 308 306 305 304 302 300 300 300 299 299 298 297 297 296 295 294 294 295 295 294 294 294 294 294 292 292 292 291 291 290 289 289 287 287 286 285 285
323 322 319 315 313 310 308 306 305 304 302 300 299 299 299 298 298 297 296 296 294 294 294 295 294 293 293 292 292 291 291 291 291 291 290 288 287 286 285 283 283 283 284
322 321 318 314 312 310 307 305 305 304 301 300 299 299 298 298 297 296 296 295 294 294 294 294 294 294 292 291 290 290 291 290 290 289 288 286 285 283 281 281 281 282 282
320 319 316 313 311 309 306 306 305 303 301 300 299 298 298 297 296 295 295 295 294 294 294 294 294 294 293 291 289 287 288 288 288 287 286 285 284 283 282 282 281 280 280
319 317 315 313 311 309 306 306 304 302 300 299 298 297 297 296 295 294 294 294 294 294 294 293 293 294 293 291 287 285 285 287 287 286 285 284 283 283 283 282 281 281 281
317 316 315 313 312 309 305 304 303 301 299 298 297 297 295 294 293 293 294 294 294 294 293 293 293 292 291 289 286 284 285 286 286 284 284 283 283 282 280 279 280 280 281
316 315 314 313 311 308 305 303 301 299 297 297 296 294 293 293 293 293 293 293 294 293 293 292 292 291 289 288 285 283 285 286 285 284 283 282 281 280 278 278 279 279 280
315 315 314 312 310 306 303 301 299 299 297 296 294 293 293 292 292 293 293 293 293 293 292 291 290 290 289 287 284 283 284 285 284 284 283 282 280 278 278 278 278 278 279
315 314 313 311 307 302 299 300 298 297 294 293 293 292 292 292 293 292 292 293 293 292 292 291 290 289 287 287 285 283 282 284 283 283 283 282 280 278 277 277 277 278 276
314 311 308 304 300 299 298 297 295 293 293 293 292 292 292 292 292 292 292 293 292 292 292 291 290 289 288 286 284 283 281 280 281 282 282 281 279 277 277 277 277 276 276
308 304 300 298 298 295 293 293 294 293 292 292 292 292 292 292 292 292 292 292 292 292 291 291 290 289 289 288 285 284 282 280 280 281 281 280 279 278 279 279 278 277 279
301 298 298 296 293 294 293 292 292 292 292 291 291 291 291 291 290 290 291 292 292 291 291 290 289 289 289 288 287 284 283 282 281 282 282 280 280 280 280 280 280 279 279
297 297 294 294 293 293 292 292 291 291 291 290 291 291 291 291 291 290 290 290 290 291 290 290 290 289 289 287 286 286 285 284 283 281 281 282 282 281 281 281 280 280 279
295 294 294 294 292 292 292 291 291 290 290 291 291 291 291 291 291 290 290 289 289 289 289 287 287 287 286 285 283 283 283 282 281 281 282 282 283 282 281 281 280 280 279

GFSMW_925_thetae_018.txt.gz
Theta_e
330 330 330 330 329 334 335 333 333 330 329 328 328 327 323 320 318 315 314 313 311 310 310 311 310 309 309 308 306 305 304 305 304 302 303 302 302 301 300 300 299 299 300
332 331 332 333 332 334 335 333 331 329 329 329 326 322 321 320 316 314 312 311 311 310 309 309 308 308 307 306 304 302 303 304 303 302 301 300 300 300 299 298 298 298 297
332 332 333 334 334 334 333 331 330 329 330 326 322 322 319 316 314 314 312 311 310 309 309 308 306 305 305 304 303 302 303 303 301 301 300 299 299 299 299 298 297 295 295
331 332 333 334 333 331 331 331 331 329 323 321 321 320 317 315 314 312 311 311 310 307 303 301 299 299 300 302 303 302 302 301 301 300 299 298 297 296 295 295 295 294 294
331 332 333 333 333 332 331 327 323 322 320 318 318 317 315 313 311 309 306 303 301 299 299 298 298 298 298 299 301 302 302 300 300 299 298 296 296 295 294 293 293 293 293
331 331 330 328 326 325 322 320 317 317 317 316 315 313 310 308 304 301 300 300 299 298 298 298 297 298 299 299 301 301 300 300 299 298 296 295 295 294 293 292 292 292 292
330 328 325 323 323 321 318 317 316 316 315 313 310 306 304 302 301 300 299 299 298 298 297 297 297 298 299 300 300 300 298 299 298 297 295 294 294 293 293 293 292 292 292
327 324 322 320 319 319 318 316 315 314 312 308 304 302 302 301 299 299 299 298 297 297 296 296 296 297 299 300 300 298 299 298 297 296 295 294 293 292 292 292 291 290 290
324 322 320 319 319 318 317 316 314 312 308 305 303 302 300 300 299 299 299 297 297 296 296 296 296 296 297 298 299 299 297 297 296 295 294 293 293 292 292 292 291 291 289
323 321 319 319 319 318 316 315 314 309 306 304 302 301 300 299 299 299 298 297 297 296 296 295 295 295 296 298 299 298 297 296 295 294 293 292 293 292 291 291 290 290 290
323 321 320 319 319 317 316 315 312 307 306 303 302 301 300 300 299 299 298 297 297 296 295 295 295 295 295 295 295 295 295 294 294 294 292 292 292 291 290 290 290 289 288
323 321 320 319 317 316 316 313 310 307 305 303 301 301 300 300 299 299 298 297 297 296 295 295 295 295 295 295 294 294 295 294 294 293 292 292 291 290 290 289 287 286 285
324 322 321 319 317 316 314 311 309 308 305 303 302 301 301 300 299 299 298 297 297 296 295 295 295 295 293 293 293 293 294 293 292 291 291 291 289 288 287 286 284 283 284
324 323 321 319 317 316 313 310 308 307 305 303 302 301 300 299 299 298 298 297 296 295 295 294 294 294 294 293 292 292 291 291 291 291 290 289 287 286 285 283 282 282 282
323 323 323 320 317 316 313 310 308 306 305 304 301 300 300 299 299 298 297 296 296 295 295 294 294 294 294 293 291 290 290 290 289 289 288 287 286 285 284 283 282 282 281
319 321 322 320 317 315 313 310 307 306 306 303 300 300 299 299 298 297 296 296 295 295 295 294 294 294 294 293 292 290 288 287 288 287 287 286 285 284 283 283 282 281 281
318 319 320 319 317 315 313 310 307 307 305 301 300 299 298 297 296 295 295 294 294 294 295 294 294 293 294 293 291 288 287 286 287 287 285 285 284 283 283 282 281 280 280
317 318 318 317 316 314 312 309 307 306 303 301 299 298 297 295 294 294 294 294 294 294 294 294 293 293 292 291 290 287 286 287 287 286 285 284 283 282 281 280 278 279 279
316 316 316 316 315 314 312 307 306 303 301 299 298 297 294 294 293 293 293 293 294 294 294 293 293 292 291 290 288 286 285 286 286 285 284 284 283 281 281 279 278 278 278
315 315 315 315 314 313 309 306 302 299 298 297 295 296 293 293 293 293 293 293 293 293 293 293 291 291 290 288 287 286 284 284 285 284 284 283 282 280 280 278 278 278 278
315 315 313 307 307 303 302 300 298 297 295 295 294 293 293 293 293 293 292 292 292 293 293 292 291 290 289 288 287 286 285 283 284 283 283 283 282 281 279 278 277 278 277
314 308 299 298 299 299 298 296 295 294 295 295 293 293 292 293 293 292 292 292 292 293 293 292 291 290 290 289 287 286 285 283 281 281 282 282 281 280 279 279 279 278 278
303 300 299 297 295 294 294 295 294 294 293 293 292 292 292 292 292 291 290 290 291 292 292 292 291 291 290 289 288 287 285 283 282 282 281 281 281 281 280 280 280 279 279
300 299 296 295 295 293 293 293 293 292 292 292 292 291 291 291 291 290 290 290 290 291 292 291 291 291 290 289 289 288 285 283 282 282 282 282 281 282 282 282 281 281 280
297 296 295 294 294 293 293 292 293 292 291 291 291 291 291 291 291 291 291 290 290 289 289 289 290 291 290 289 287 287 286 285 284 283 282 281 282 283 282 282 281 281 280
295 295 294 294 293 293 293 293 292 292 291 290 290 291 291 291 291 291 291 291 290 289 289 289 289 288 289 288 287 285 284 284 283 282 281 282 282 283 282 282 282 281 280

GFSMW_925_thetae_021.txt.gz
Theta_e
326 327 327 330 332 331 330 329 330 330 329 325 324 327 323 320 316 315 313 311 310 310 310 310 309 309 308 307 305 303 302 302 303 302 300 300 300 300 299 298 298 297 296
327 329 330 332 334 332 330 331 331 330 328 323 326 326 321 318 316 314 312 311 310 309 309 308 308 307 305 305 304 303 302 302 302 300 300 297 299 298 297 297 297 295 294
329 329 331 332 334 333 331 331 331 330 328 328 328 323 320 315 314 312 311 310 309 309 307 305 302 301 301 301 302 302 302 301 301 300 299 296 296 295 296 296 294 294 293
329 330 331 332 334 332 332 331 330 328 329 329 321 320 315 314 313 312 311 308 306 305 302 300 298 298 298 297 298 301 301 301 300 300 299 297 295 293 292 293 293 292 292
328 329 331 333 333 332 330 328 328 328 329 322 321 319 314 312 311 308 306 305 303 300 298 298 298 297 297 299 299 301 301 300 300 299 298 296 295 294 292 290 291 292 292
327 328 332 332 331 331 331 330 325 319 318 320 317 315 311 308 308 307 303 301 299 298 298 297 297 296 298 299 300 300 299 299 298 298 297 295 294 293 292 290 290 291 291
328 327 325 324 323 323 321 319 317 316 316 315 311 310 308 309 307 302 301 299 298 297 297 296 296 296 297 299 300 299 298 298 297 297 296 295 294 293 292 292 290 290 290
325 323 321 321 320 319 317 316 316 314 314 312 309 307 305 304 303 300 299 298 298 297 296 296 295 295 296 298 299 297 298 297 297 297 295 295 294 293 292 292 290 287 288
321 319 318 319 319 318 316 316 315 313 310 307 305 303 303 302 299 299 298 297 297 296 296 295 295 295 295 295 298 298 298 297 296 295 295 294 293 292 292 291 291 290 285
319 318 317 317 318 318 317 316 314 311 307 304 303 303 301 299 299 299 298 297 297 296 296 295 295 295 295 295 296 298 296 295 294 295 294 293 292 292 291 291 290 289 288
318 317 316 317 318 318 317 316 313 309 305 303 303 302 300 299 299 299 298 298 297 296 295 295 295 294 295 295 295 294 294 294 294 294 294 293 292 291 290 289 288 286 285
318 316 316 317 317 317 316 315 312 307 304 304 303 301 300 300 300 299 298 298 297 296 295 295 294 295 295 294 293 293 293 294 292 292 292 291 291 290 288 287 286 285 283
317 316 315 316 316 315 315 315 310 306 305 304 302 301 300 300 300 299 298 298 297 296 295 295 294 294 294 294 293 292 292 291 291 291 291 290 289 288 286 285 284 283 282
319 317 316 316 315 315 314 314 310 307 305 303 302 302 301 301 300 299 298 297 297 296 295 295 294 294 294 294 293 292 291 291 290 289 289 288 287 286 285 284 283 282 282
319 317 316 314 315 314 312 312 310 307 305 303 303 302 301 301 299 298 298 296 296 296 295 294 295 294 294 294 294 292 290 289 289 288 287 286 286 285 284 283 283 282 282
313 317 317 315 315 313 311 310 309 307 305 303 304 302 300 299 298 297 297 295 295 295 294 295 294 294 294 294 294 292 291 288 287 287 287 286 285 284 283 283 282 281 280
314 315 316 316 314 314 312 310 309 307 305 305 303 299 298 297 296 296 295 294 294 294 294 295 294 294 293 294 293 292 289 287 287 287 286 285 284 284 283 282 281 280 278
313 313 314 316 315 315 314 312 308 306 306 303 298 298 297 295 295 294 293 293 294 293 294 294 294 293 293 293 292 291 288 286 286 286 286 285 284 283 282 282 280 278 277
311 313 314 315 315 314 313 309 306 305 299 296 295 295 295 294 294 293 293 293 293 293 293 293 293 293 292 291 290 289 286 285 286 285 285 284 283 282 281 280 280 277 277
305 302 303 304 307 307 305 300 296 296 295 295 295 295 294 293 292 293 293 293 292 292 292 293 293 291 291 290 289 288 286 285 285 284 284 283 283 281 281 281 279 277 278
299 298 298 297 296 297 296 295 294 295 295 296 295 293 293 293 293 292 293 292 292 292 292 293 292 292 291 290 289 288 287 286 285 284 283 282 282 282 281 280 279 279 279
298 296 295 295 295 295 295 295 294 294 294 294 293 293 293 292 292 292 292 292 291 291 291 292 292 291 291 290 289 288 287 286 285 283 282 281 282 282 281 280 280 280 279
295 295 295 295 295 296 297 295 294 297 298 296 293 293 292 292 292 292 291 290 290 290 290 291 292 291 291 290 289 289 288 287 285 284 282 282 281 282 281 281 281 280 280
296 296 295 294 294 294 294 294 293 293 292 292 292 291 291 291 291 291 290 291 290 290 289 289 289 290 290 290 290 289 288 287 285 284 283 282 282 281 282 282 281 281 281
295 295 295 294 294 293 293 293 292 292 292 291 291 290 291 291 291 291 291 291 291 290 290 289 289 289 289 289 289 288 288 287 286 284 283 282 282 281 282 282 281 281 281
294 294 294 294 294 293 293 293 292 292 292 291 291 290 290 291 291 291 291 291 291 290 290 290 289 289 288 288 288 288 287 285 285 284 283 283 281 281 281 282 282 281 281

GFSMW_925_thetae_024.txt.gz
Theta_e
324 327 331 330 328 328 331 328 329 329 328 323 323 323 322 318 315 315 313 312 311 311 311 310 309 308 307 305 304 303 302 301 302 302 301 300 299 298 297 297 295 294 294
323 323 326 329 329 329 329 328 328 329 328 327 324 324 323 318 315 312 311 310 310 310 309 309 308 306 304 303 303 302 301 302 301 300 298 295 298 297 297 296 293 293 293
325 326 326 329 329 329 329 328 329 329 329 329 324 325 321 315 312 311 311 310 309 309 308 306 304 301 299 298 298 301 301 301 300 299 299 295 294 294 295 294 293 293 293
325 327 329 330 330 329 330 329 328 329 329 326 325 325 318 313 312 311 311 309 309 308 304 300 299 298 297 297 298 299 301 301 300 299 298 297 295 291 291 293 293 293 292
326 328 330 331 330 329 329 330 329 329 328 323 327 324 318 314 312 311 310 308 302 300 298 298 297 296 296 298 299 300 300 300 299 299 297 297 295 293 291 289 291 292 292
325 327 331 331 330 330 330 330 330 329 328 328 325 323 318 313 311 309 304 300 298 298 297 297 296 295 297 298 299 299 299 298 298 297 297 295 294 293 292 288 289 290 291
326 329 328 330 330 329 329 329 328 326 327 327 318 317 314 312 310 306 302 299 298 297 296 296 295 295 296 297 299 299 297 297 297 297 296 296 295 293 292 291 289 288 290
328 329 326 324 324 324 323 324 320 315 316 318 315 311 309 309 307 302 300 298 297 296 296 295 295 295 295 295 297 298 297 297 296 296 296 295 295 293 292 291 290 287 288
325 323 320 320 319 317 318 317 315 313 311 311 309 307 305 303 302 299 298 297 297 296 296 295 295 295 295 294 295 296 298 298 296 295 294 294 294 292 292 292 290 289 284
322 321 320 317 316 316 316 316 315 314 312 310 307 304 303 301 300 299 298 297 297 296 296 295 295 294 294 295 295 296 297 294 294 294 294 294 292 292 291 291 289 288 286
321 320 319 318 317 316 315 315 314 313 310 309 307 304 303 300 299 299 298 298 297 297 296 296 295 294 294 295 294 294 293 293 294 294 294 293 292 292 291 290 289 287 285
320 319 318 317 316 316 315 314 313 313 311 307 306 304 302 300 299 299 299 298 298 297 297 296 295 294 294 294 293 293 292 292 293 292 292 291 291 290 289 288 286 285 283
317 317 315 316 315 315 315 312 311 310 308 305 304 303 302 300 300 299 298 298 297 297 296 296 295 294 294 294 294 293 292 292 291 291 290 290 289 289 287 285 284 283 282
317 315 314 315 316 315 314 312 308 309 307 304 303 302 301 301 300 300 298 298 297 297 296 295 295 294 294 294 293 293 292 291 290 290 289 288 287 286 285 284 283 282 282
317 314 313 314 315 314 314 310 310 308 305 303 303 302 302 301 300 299 298 297 296 296 295 295 294 294 294 294 294 293 293 291 289 288 288 287 286 285 284 283 283 282 281
315 315 313 313 313 313 312 311 309 306 304 304 303 302 301 301 299 297 296 295 295 294 294 294 294 294 294 294 294 294 292 291 288 287 287 287 286 285 284 283 282 281 280
313 316 313 313 313 313 313 312 310 306 304 303 302 302 300 298 295 294 295 294 294 293 294 294 294 294 294 293 294 293 292 291 288 287 287 286 285 284 283 282 282 281 280
311 311 314 314 314 314 313 312 308 305 303 302 300 298 296 295 295 296 294 293 293 293 293 293 294 294 293 293 293 292 291 289 287 286 286 285 285 284 283 282 282 281 281
302 301 301 307 311 312 309 307 304 302 298 296 295 294 294 295 294 294 293 292 293 293 292 292 292 293 293 293 292 291 290 287 286 286 285 285 284 283 282 281 281 281 279
298 298 299 299 299 299 302 298 295 295 294 294 294 295 295 296 296 293 293 293 292 292 292 292 292 292 292 291 291 290 289 287 286 285 285 284 284 283 281 282 281 280 279
296 296 296 295 295 296 296 295 294 294 295 296 297 297 298 297 294 293 292 292 292 292 291 291 291 291 291 291 291 289 288 288 286 285 284 283 282 282 282 282 281 280 279
296 296 295 295 296 296 296 295 295 296 297 298 298 298 295 293 292 292 292 292 291 290 290 290 291 292 292 290 290 290 289 288 286 286 285 283 282 281 282 281 281 281 281
295 295 295 296 296 296 297 295 295 296 297 296 294 293 293 292 291 291 291 291 290 290 290 290 289 289 291 290 290 289 289 288 287 287 286 284 282 281 281 281 281 281 281
296 295 295 294 293 294 293 293 293 292 292 292 292 291 291 290 290 291 291 290 290 290 290 290 289 289 289 288 290 290 289 287 287 286 285 284 282 282 282 281 281 282 281
295 294 294 294 293 293 293 293 293 292 292 291 291 291 290 290 290 290 290 291 291 290 291 290 290 289 289 289 288 288 289 289 288 286 285 283 282 282 282 282 281 282 282
294 294 294 293 293 293 293 292 292 292 292 291 291 291 291 290 289 290 290 290 290 291 290 290 290 289 289 289 289 288 288 288 288 286 284 284 283 282 283 282 281 281 282

GFSMW_925_thetae_027.txt.gz
Theta_e
330 330 331 331 332 331 331 333 329 328 328 324 321 321 320 318 315 314 314 313 313 311 310 310 309 308 306 303 302 301 300 300 301 301 300 299 297 297 296 295 294 294 293
327 330 331 331 330 330 331 331 328 328 327 324 322 321 320 316 315 313 312 311 311 310 309 308 307 304 303 301 299 298 300 301 301 300 298 295 297 296 295 294 293 293 292
324 325 329 330 328 328 330 330 328 327 326 324 323 322 319 317 313 312 310 309 309 309 308 306 303 300 299 298 296 297 300 300 300 299 299 294 294 294 296 293 293 293 293
323 323 327 328 327 326 328 329 328 328 327 325 324 323 319 313 311 310 309 309 308 307 303 300 299 298 297 296 296 298 299 301 300 298 298 297 296 291 291 293 292 292 292
322 323 323 327 327 327 326 328 328 327 327 326 325 324 318 314 312 310 309 306 303 300 298 298 297 296 295 295 297 298 299 299 299 298 297 296 295 293 290 289 291 292 292
320 324 326 328 328 328 327 328 327 327 327 327 324 324 320 314 311 309 307 303 300 298 298 297 296 295 294 296 299 299 298 297 297 297 296 296 294 293 291 288 289 289 291
321 326 328 329 328 328 328 328 328 327 327 327 324 324 322 316 313 310 305 300 298 297 296 296 295 295 294 295 297 298 297 297 296 296 296 296 295 294 293 291 289 288 289
323 327 329 329 328 328 328 328 327 327 328 327 325 325 322 316 312 308 302 299 298 297 296 296 298 294 294 294 294 296 297 297 296 296 296 295 295 294 292 291 290 287 287
324 327 328 329 328 327 328 329 327 328 326 327 325 319 316 314 310 303 300 298 297 296 296 295 294 294 294 294 294 294 296 298 296 295 294 294 294 294 292 291 291 290 285
324 323 323 322 324 327 328 327 325 324 321 321 321 315 311 309 306 302 299 298 297 299 296 295 295 294 293 294 295 295 296 295 294 294 294 294 293 292 292 291 290 289 289
323 323 322 320 321 323 324 322 318 315 315 315 313 310 307 305 302 301 299 297 298 296 296 296 296 295 295 294 294 294 293 293 292 293 293 293 293 293 292 291 289 288 286
322 322 321 318 315 315 316 316 313 312 311 309 308 306 303 302 301 299 299 298 298 297 297 296 296 295 294 294 294 294 293 293 293 293 292 292 291 291 290 289 288 286 284
319 319 317 316 314 313 313 312 310 308 306 308 307 304 303 302 301 299 299 298 298 297 297 296 296 295 295 293 293 294 293 293 292 292 291 291 290 290 289 287 285 284 283
318 316 315 315 316 315 313 312 310 307 307 307 306 303 303 302 300 300 299 298 298 297 297 296 296 295 295 294 294 294 293 292 292 291 290 290 289 287 286 285 284 283 282
316 314 313 313 315 315 314 312 310 308 309 306 305 304 304 302 301 300 299 298 297 296 296 295 295 295 294 294 294 294 293 292 291 290 289 288 287 286 285 285 284 283 282
316 313 312 312 313 314 314 311 310 310 308 306 305 303 302 301 300 299 297 296 296 295 294 294 294 294 294 294 294 294 293 292 290 289 288 287 286 286 285 284 283 282 281
313 314 313 311 313 313 314 312 312 310 307 303 301 300 300 299 298 295 294 294 295 296 297 294 293 293 294 294 294 293 293 292 291 290 288 287 286 285 285 283 282 281 280
306 303 302 309 312 312 311 311 309 305 302 301 300 300 299 295 295 296 295 296 297 295 297 293 293 292 292 293 293 293 292 291 291 288 287 286 286 285 284 283 282 281 280
298 298 298 299 303 305 307 307 303 300 298 295 295 294 295 295 296 297 297 297 296 295 293 292 292 292 292 292 293 292 292 291 290 288 287 286 285 285 284 283 282 281 281
296 296 296 298 298 297 298 297 294 294 294 294 295 296 297 297 297 298 298 295 293 292 292 292 292 291 291 292 292 292 291 290 289 288 286 286 285 284 283 282 281 281 280
296 296 296 296 296 296 296 294 294 294 296 297 297 296 297 297 297 296 294 292 292 292 291 290 290 290 291 291 291 291 290 290 289 287 286 286 285 284 282 281 281 281 280
295 295 295 295 295 296 296 295 296 297 297 297 298 298 298 297 295 293 292 292 291 291 290 290 290 290 289 289 291 290 289 289 288 288 287 287 285 284 282 282 281 281 281
295 295 295 295 295 296 296 295 296 297 297 296 294 293 292 292 291 291 291 291 291 290 290 290 290 290 290 289 289 290 289 288 288 288 288 286 285 284 282 282 282 281 281
294 294 294 293 293 293 293 293 292 292 292 292 291 291 290 290 289 290 290 290 290 290 290 290 289 290 290 289 289 289 288 288 289 288 288 287 285 283 282 282 282 282 281
294 294 293 293 292 292 292 292 292 291 291 291 291 291 291 290 290 290 289 289 290 290 290 290 290 290 290 290 289 289 289 288 288 288 287 284 283 283 282 282 282 282 281
293 293 292 292 291 291 290 291 291 291 291 290 290 290 290 290 290 289 290 291 290 290 290 290 290 290 290 290 289 287 287 288 288 286 284 283 282 282 282 282 282 282 281

GFSMW_925_thetae_030.txt.gz
Theta_e
329 327 326 324 326 328 330 330 330 330 327 326 326 323 321 319 318 318 317 315 315 312 311 310 308 307 306 303 301 300 300 300 300 300 299 297 296 296 295 294 294 294 294
328 327 327 326 327 329 330 330 330 330 328 327 326 324 319 318 317 315 314 313 313 310 309 308 307 305 302 298 298 298 299 300 300 299 297 294 296 296 294 293 293 293 293
328 328 328 329 329 330 331 330 330 331 330 326 323 320 319 317 314 312 311 311 310 309 308 307 303 299 298 296 296 296 297 299 299 299 298 295 294 293 295 293 292 292 292
325 326 328 329 328 328 329 329 330 330 327 325 323 321 320 315 313 312 310 308 308 308 305 301 299 298 296 295 295 296 298 299 299 298 298 297 296 293 293 294 294 292 292
320 323 324 328 328 328 329 328 328 327 326 326 325 322 319 315 314 310 308 308 306 303 300 299 297 296 294 295 295 296 298 298 298 298 297 296 295 294 291 290 292 292 292
318 319 322 326 328 327 327 327 328 328 326 325 324 322 319 315 311 308 307 305 302 300 298 297 296 297 301 296 295 296 298 297 296 296 296 296 294 293 291 288 289 289 292
318 320 321 323 326 327 326 326 327 326 326 325 323 323 322 319 313 309 307 302 299 297 297 296 297 300 295 293 293 296 297 297 296 296 295 295 295 295 294 291 290 288 289
318 322 324 324 325 326 326 326 325 325 326 326 325 324 324 320 315 311 308 305 301 299 298 296 300 299 300 293 293 294 296 297 297 296 295 295 295 295 294 292 290 287 287
317 322 325 326 326 326 327 327 325 325 325 326 326 325 323 321 316 311 308 304 301 298 296 299 301 295 293 293 293 294 294 296 297 296 294 294 293 293 293 292 291 290 290
319 322 324 327 327 327 327 327 326 326 326 326 326 326 323 321 315 311 305 301 299 298 297 300 295 294 294 293 294 294 294 296 295 293 293 293 293 293 292 292 291 290 289
320 322 323 326 326 327 327 326 327 327 326 326 325 325 321 316 311 308 305 303 299 297 299 295 295 295 295 294 293 294 294 293 293 292 292 293 293 293 292 291 291 289 288
319 320 320 322 322 323 324 326 324 321 322 323 320 317 314 309 310 308 304 300 298 299 296 296 296 296 295 294 294 294 294 293 293 293 292 292 292 292 291 291 290 289 287
319 318 317 316 317 318 318 319 316 317 315 314 313 311 308 308 307 305 301 299 298 297 296 296 296 295 295 295 294 293 293 293 293 293 292 292 291 291 290 289 288 287 285
318 317 316 315 315 315 317 316 315 313 311 310 309 308 307 306 305 302 300 298 298 297 296 296 296 295 295 295 294 293 293 293 293 292 292 291 291 290 289 287 286 285 283
317 316 315 313 314 315 314 313 312 309 307 307 307 306 304 302 300 300 299 298 297 297 296 296 295 294 297 294 294 294 294 293 293 292 291 291 289 288 287 286 285 284 283
316 315 313 312 313 315 315 315 313 312 310 308 305 303 301 300 300 299 298 297 296 296 295 294 295 297 297 293 293 294 294 293 293 292 291 290 289 287 286 285 285 284 283
306 306 308 309 311 312 314 313 311 309 308 306 302 301 301 300 299 298 297 296 294 295 297 297 297 297 294 293 293 293 293 293 293 292 291 289 288 286 286 285 284 283 282
301 299 299 301 304 308 309 309 308 307 304 302 301 300 299 297 295 294 294 297 298 298 297 297 294 293 293 292 292 292 292 292 292 292 290 289 288 287 286 285 284 283 281
296 296 297 298 300 302 302 302 299 298 298 296 296 295 295 294 295 297 297 297 297 297 296 293 293 292 292 291 291 292 292 292 292 291 290 289 287 287 286 284 283 283 282
295 296 297 297 297 297 299 298 294 294 294 294 295 296 297 297 296 296 296 296 296 296 294 292 291 291 290 289 290 291 291 291 290 290 290 288 287 286 285 284 283 282 282
295 295 295 294 294 295 295 294 295 296 297 296 296 296 296 296 296 297 297 296 295 293 292 291 291 290 289 289 289 290 290 290 290 289 289 289 287 286 285 284 283 282 281
294 295 294 294 295 295 296 296 296 297 297 297 298 298 297 296 295 293 293 292 291 291 291 290 290 289 290 290 289 289 289 289 289 288 289 289 289 286 285 284 283 282 281
293 294 294 295 296 296 296 296 295 294 293 293 292 291 291 290 290 290 290 290 290 290 290 289 289 289 290 290 290 290 289 289 288 288 288 288 287 286 286 284 283 282 282
293 293 293 292 291 292 291 291 291 291 291 290 290 290 290 290 290 290 290 289 289 289 289 288 288 288 289 289 290 290 290 289 289 288 288 288 287 287 285 285 283 282 282
293 292 291 290 290 290 290 290 291 291 290 290 289 289 288 288 288 287 287 287 287 287 287 287 288 287 287 288 289 290 290 290 288 288 287 286 285 284 283 283 283 282 282
292 291 290 289 289 289 288 287 287 288 287 286 285 284 283 282 282 282 282 282 282 283 284 285 286 287 287 287 288 288 288 288 289 286 285 284 283 282 282 281 281 281 281

GFSMW_925_thetae_033.txt.gz
Theta_e
327 327 327 325 325 324 325 326 327 327 329 326 322 324 326 322 321 320 320 321 319 314 312 310 308 308 307 304 302 299 299 301 299 301 300 298 296 296 295 295 295 294 294
331 329 327 325 325 326 326 328 328 329 329 326 322 323 324 321 319 318 318 316 314 312 311 309 308 307 304 301 298 297 301 300 299 301 300 301 299 297 295 294 294 293 293
332 331 328 326 326 326 328 328 329 329 328 326 325 325 323 319 315 313 314 314 312 310 309 309 308 305 301 297 296 296 297 300 299 299 300 300 300 299 297 295 294 293 293
328 331 330 328 327 327 328 329 329 329 328 326 324 324 321 318 315 312 311 311 310 309 308 307 304 300 297 295 296 296 297 299 300 299 298 298 299 299 299 296 295 294 294
327 328 330 330 329 328 328 328 328 327 327 326 324 321 320 318 316 312 310 309 308 308 307 303 300 298 295 299 301 297 298 297 299 299 299 298 297 296 297 297 296 294 294
324 325 327 329 330 329 328 328 328 327 326 325 323 321 320 318 315 312 309 308 306 304 302 300 298 296 302 300 296 296 295 297 297 298 297 297 297 296 295 296 295 294 294
324 324 324 325 328 327 327 328 328 327 327 327 323 322 320 319 316 314 310 307 303 301 300 299 296 299 300 297 298 295 296 296 298 297 297 296 296 295 295 295 294 294 293
324 324 324 324 326 327 327 328 327 326 320 321 323 320 319 319 318 317 312 310 306 301 298 297 297 299 299 297 295 294 294 295 297 296 296 296 296 295 295 294 294 295 293
320 322 323 323 324 326 326 327 328 327 325 323 322 321 320 322 320 319 311 308 304 301 299 298 299 300 295 293 293 293 294 294 296 295 296 295 295 294 294 294 293 294 294
319 320 322 324 325 326 326 327 327 327 326 323 321 322 324 323 320 314 310 306 303 301 299 297 298 296 293 293 293 293 294 294 295 295 295 295 294 294 293 293 293 292 292
323 322 323 325 326 326 326 326 326 326 324 323 322 323 323 321 319 316 308 305 304 300 298 297 299 294 294 294 294 294 294 294 296 294 293 294 293 293 293 293 292 292 291
322 324 325 326 326 326 325 325 324 323 322 323 324 323 322 319 315 312 308 306 303 299 297 299 295 294 295 295 295 294 293 294 295 294 294 293 293 293 293 292 292 291 290
322 323 324 325 324 323 321 319 320 318 323 321 318 318 316 312 309 308 308 304 302 300 297 296 295 296 296 295 294 295 294 293 293 293 293 293 293 293 292 291 291 290 288
319 323 323 321 320 319 319 320 319 318 313 310 309 308 307 307 306 305 302 301 300 298 298 296 296 296 295 294 296 296 293 293 293 293 293 293 293 292 292 291 290 288 287
319 320 321 320 318 317 316 316 314 315 314 310 308 308 308 304 302 300 300 299 298 297 296 296 295 294 294 297 297 296 293 293 293 293 293 293 292 292 291 290 289 287 286
316 315 315 316 316 316 316 314 312 311 310 308 306 303 303 301 300 299 299 297 296 296 295 294 293 295 296 295 296 295 293 293 293 293 293 292 291 291 290 288 287 286 286
309 309 310 309 310 311 311 312 310 309 306 304 303 302 302 301 300 299 298 296 295 294 295 296 295 296 295 295 294 293 291 292 293 293 292 291 290 290 288 287 286 285 284
304 303 303 303 303 304 305 305 304 303 302 302 301 300 299 298 297 296 295 296 297 297 296 295 296 295 295 295 294 292 291 291 291 291 292 291 290 289 288 286 286 286 285
300 299 299 299 299 299 299 299 299 298 298 297 297 297 296 296 296 297 297 297 296 296 296 296 296 294 294 292 291 290 290 290 291 291 291 290 290 289 289 285 285 285 284
298 298 297 297 297 296 297 297 297 297 296 297 296 296 296 297 297 296 296 296 296 297 297 295 294 292 291 291 289 289 289 290 290 290 290 290 290 289 288 286 286 285 285
296 296 296 296 296 297 297 297 297 297 297 297 297 297 297 296 297 297 297 296 295 294 292 291 291 291 290 290 289 289 289 289 289 289 289 289 290 289 288 287 285 285 285
296 296 296 296 296 297 297 296 296 297 297 297 296 294 293 293 292 291 291 290 290 290 290 290 290 289 289 289 289 289 289 289 289 289 289 288 289 289 288 287 286 286 284
296 296 296 296 295 295 295 293 292 292 291 291 290 290 290 290 290 290 290 290 289 289 289 289 289 290 289 289 289 289 289 289 289 289 289 289 288 288 287 286 285 286 284
295 294 293 292 291 290 290 290 290 290 290 290 289 288 288 288 287 287 287 287 287 286 287 287 287 286 286 287 287 287 287 287 287 288 288 288 288 288 286 285 285 285 284
292 292 291 291 289 289 288 289 289 289 288 287 286 285 284 284 284 283 283 283 283 283 284 284 284 284 284 284 282 282 282 284 285 286 286 286 286 286 285 284 284 285 284
291 291 290 289 287 286 285 285 286 286 285 284 283 282 282 282 282 281 281 280 280 280 280 280 281 281 281 280 279 279 279 280 282 284 285 287 287 286 285 285 284 284 284

GFSMW_925_thetae_036.txt.gz
Theta_e
326 326 325 324 323 324 325 325 326 328 330 327 323 323 326 327 328 328 326 324 321 319 318 316 314 312 312 310 309 306 304 304 303 305 306 303 302 301 300 300 299 298 298
327 328 328 325 324 324 325 326 328 329 330 327 324 325 327 327 327 325 323 322 319 318 316 314 313 312 311 309 307 304 305 305 304 306 304 307 304 302 300 299 298 298 297
332 331 330 330 327 325 326 326 328 330 331 329 325 325 327 325 323 321 320 318 317 316 314 313 312 311 309 307 305 304 305 307 304 303 302 305 306 303 301 300 299 298 297
330 331 332 330 330 328 327 327 328 330 331 330 326 325 324 326 323 321 319 316 314 314 313 312 311 309 307 305 303 305 306 305 306 303 301 301 301 301 302 301 299 299 298
330 331 331 332 330 329 328 329 329 330 331 330 328 327 326 327 325 320 317 315 313 312 311 309 307 306 305 303 304 305 304 305 301 302 303 301 300 300 300 301 299 298 297
330 331 330 330 331 330 329 330 330 330 331 330 327 326 326 327 323 319 317 314 313 311 307 306 305 305 303 304 306 303 304 300 301 301 300 299 300 300 299 299 298 298 297
330 330 331 331 331 332 332 331 331 330 330 329 325 324 326 326 321 319 316 312 308 307 308 305 305 304 303 305 303 303 300 301 300 300 300 299 298 297 297 297 297 298 297
330 330 330 329 330 332 333 333 332 330 328 326 326 326 326 325 322 321 313 310 311 309 307 304 304 303 303 302 302 299 300 300 300 300 299 298 298 297 297 297 296 298 296
324 327 329 329 329 330 332 333 332 330 328 326 321 322 323 324 322 320 312 312 309 307 305 304 303 302 302 301 300 299 299 299 301 300 299 298 297 297 296 296 295 296 297
323 323 324 325 328 328 330 332 332 332 330 323 323 324 324 323 322 320 314 311 309 309 305 304 302 301 300 300 298 298 299 301 300 299 298 297 296 296 295 295 295 295 294
326 326 326 325 326 327 329 330 331 331 331 327 326 325 325 324 323 321 315 313 311 308 303 303 302 299 300 297 296 298 300 298 298 298 297 297 296 295 295 295 294 294 294
324 327 328 328 329 329 329 329 330 330 330 330 329 328 326 324 322 319 315 313 310 307 304 304 301 300 298 297 297 298 296 297 298 297 297 296 296 296 295 295 294 294 293
323 327 329 330 330 330 330 330 330 330 329 328 327 325 322 320 319 315 313 310 309 307 305 303 299 298 296 297 297 296 297 298 297 296 296 296 296 296 295 295 294 293 293
320 326 328 329 328 328 327 327 327 325 322 320 321 320 318 315 313 312 311 310 308 307 304 300 297 297 297 297 295 296 297 297 296 295 295 296 296 295 295 294 294 293 292
320 324 327 328 326 326 325 325 322 320 319 318 318 317 315 314 313 312 309 307 304 301 299 297 297 296 296 295 296 296 296 296 295 295 295 295 295 295 295 294 294 293 292
322 323 324 324 324 323 322 320 318 316 315 314 314 310 309 308 306 304 301 299 298 297 296 296 296 296 294 296 295 295 295 295 295 295 295 295 295 294 293 292 292 292 292
319 318 318 318 317 317 317 316 314 312 312 310 309 307 306 304 302 299 297 296 295 295 296 295 296 295 296 296 295 295 295 294 294 294 294 294 294 294 293 293 291 290 289
314 314 313 312 312 311 311 310 310 309 308 307 306 304 303 301 300 298 297 296 295 295 296 296 296 297 297 296 296 294 294 293 293 293 293 293 293 293 293 292 292 290 290
310 309 309 308 308 307 307 306 305 305 304 303 302 301 301 300 299 298 298 298 299 299 298 297 297 297 297 296 294 292 291 291 292 292 292 292 292 293 293 292 292 291 291
307 306 306 305 305 304 304 304 304 303 302 301 300 300 300 300 300 299 299 299 299 297 296 296 296 295 295 294 292 291 291 291 291 291 291 291 291 291 291 291 290 290 291
304 304 304 304 304 303 303 303 302 301 300 300 300 300 299 299 298 298 297 296 296 295 295 294 293 293 292 292 291 289 289 290 291 291 291 291 291 290 290 289 289 290 290
303 303 303 303 302 302 302 301 301 300 299 297 295 294 294 293 294 293 293 292 292 293 293 292 292 292 292 291 290 289 288 288 288 289 290 291 291 290 290 288 287 287 288
303 302 302 301 301 301 300 299 297 296 295 294 293 293 292 292 292 293 292 292 292 292 291 290 290 289 288 287 287 286 285 285 285 286 286 287 288 288 288 288 288 287 286
302 301 299 298 296 296 295 295 294 293 293 292 292 291 290 290 289 289 288 287 287 287 286 286 287 286 286 286 283 282 282 282 282 282 283 284 284 285 287 288 288 287 287
300 299 297 296 294 293 293 292 292 292 291 290 289 288 287 286 286 285 285 284 284 282 283 283 283 283 283 281 278 279 280 280 279 279 282 283 285 285 287 288 288 288 287
298 297 295 294 292 291 290 289 290 290 289 287 286 285 285 285 284 284 284 282 280 279 279 279 279 279 278 276 276 277 277 277 278 280 284 285 286 286 286 287 288 287 286

GFSMW_925_thetae_042.txt.gz
Theta_e
325 327 323 320 319 319 316 316 314 314 317 319 323 323 321 322 322 323 327 328 326 327 326 325 323 322 321 318 317 313 311 308 310 310 311 310 309 306 305 304 304 302 302
327 325 324 323 324 321 319 321 319 321 320 322 319 322 320 320 321 324 326 327 327 326 325 325 323 322 320 318 315 313 312 310 311 311 311 311 308 307 306 304 303 302 302
329 326 325 325 324 321 321 321 322 323 324 325 324 323 322 321 324 325 325 327 327 326 325 325 323 321 319 317 314 313 311 311 311 310 310 309 308 307 306 305 304 302 302
327 328 326 325 324 325 323 322 323 324 325 326 328 324 323 324 326 327 327 326 327 327 325 323 322 319 318 316 314 312 310 311 312 311 310 309 306 305 303 305 304 303 302
327 327 328 327 325 326 326 325 324 325 326 326 328 328 324 326 326 327 326 327 326 326 324 322 320 318 317 315 315 313 310 312 311 310 309 309 307 306 304 302 304 304 303
328 327 327 327 328 326 327 328 328 328 328 329 328 329 325 327 328 327 327 327 325 323 322 319 317 318 316 315 311 309 310 310 309 310 306 306 305 305 305 303 304 303 303
328 328 328 328 329 328 328 328 329 329 329 330 330 328 329 328 327 326 326 326 325 321 320 319 317 317 316 313 309 309 309 309 309 306 306 304 303 303 303 301 301 300 300
328 328 327 328 329 330 330 329 329 329 329 330 331 329 327 328 328 327 326 326 324 321 320 319 317 316 314 312 308 310 310 308 306 304 304 303 303 303 302 300 300 298 299
328 329 328 327 330 330 331 331 331 329 330 330 333 331 322 329 329 327 325 326 325 322 322 319 317 314 312 308 308 309 308 306 304 304 302 303 304 302 300 300 299 299 297
325 328 327 327 328 331 332 332 331 331 331 331 333 332 328 329 326 325 327 327 324 323 322 318 316 313 310 307 308 308 305 303 303 301 302 303 302 301 301 299 299 298 297
326 327 327 326 327 329 331 334 334 333 333 332 333 332 330 327 327 328 328 326 325 323 319 316 313 310 307 307 306 305 304 302 301 302 302 301 301 301 300 299 298 297 297
323 327 328 327 326 327 329 336 336 335 334 334 333 331 329 326 326 326 326 326 324 321 317 312 309 307 307 306 305 303 301 299 301 300 300 299 300 300 300 299 298 297 297
322 326 328 329 329 328 328 332 334 336 334 333 332 332 327 327 326 325 325 324 321 317 314 311 309 307 306 305 304 302 298 299 299 299 300 299 299 299 299 298 298 298 297
322 323 328 330 331 330 330 331 333 333 334 333 332 329 327 328 327 325 323 320 317 315 313 310 308 306 305 303 300 299 299 298 299 299 298 299 298 298 298 298 298 297 297
320 322 326 331 332 333 332 332 333 332 332 332 328 326 325 323 320 319 318 316 314 313 311 309 306 304 302 300 299 298 298 298 298 298 297 297 297 298 298 298 297 297 296
320 321 323 330 332 332 332 331 328 327 326 326 322 321 320 318 316 315 313 312 311 309 308 306 303 301 300 298 298 298 298 297 298 297 296 296 296 296 297 296 297 297 296
323 324 325 330 330 330 329 327 325 324 323 320 318 318 317 315 312 308 307 305 303 302 301 300 299 298 298 297 297 297 296 297 296 296 296 295 295 297 296 295 294 294 295
324 325 327 328 327 326 324 322 321 319 316 315 313 312 310 307 304 303 301 300 299 299 299 298 297 297 297 297 297 296 296 296 296 296 295 294 294 294 294 293 293 292 292
323 323 323 323 322 320 318 317 315 314 313 311 310 309 307 304 303 301 300 299 299 298 298 298 298 299 298 298 297 296 295 294 293 293 292 292 292 291 290 290 289 290 291
321 320 319 317 316 315 314 313 311 310 309 308 307 306 305 304 303 302 301 301 301 300 300 299 298 297 297 296 296 294 292 291 291 290 289 289 288 288 288 286 284 284 286
317 316 315 314 313 312 311 310 308 308 307 306 305 305 304 302 301 300 300 300 299 298 298 297 296 295 294 292 291 290 289 287 286 284 285 285 284 284 283 280 280 282 282
315 314 313 312 311 310 309 308 307 306 305 305 304 303 301 301 301 300 299 298 297 296 295 295 294 293 291 290 287 287 285 284 282 282 282 282 282 280 280 283 285 285 285
313 312 311 311 310 309 308 307 306 305 303 302 301 300 298 298 297 296 295 295 295 293 292 290 291 290 289 287 285 285 282 279 280 280 280 279 278 281 283 283 284 285 286
312 311 310 310 309 308 307 305 303 302 301 299 297 296 295 294 294 292 291 291 290 289 288 288 288 287 287 285 283 278 277 278 278 277 277 279 280 282 281 281 281 281 282
311 310 309 308 307 306 304 302 301 299 298 296 295 293 292 291 290 288 288 288 285 286 286 285 284 284 283 280 278 276 277 277 277 277 278 279 281 280 279 279 279 279 279
310 309 308 306 304 303 301 299 298 297 295 293 292 290 290 289 289 286 283 283 282 281 280 279 280 280 278 277 275 276 276 276 277 278 279 280 279 278 278 277 277 277 277

GFSMW_925_thetae_045.txt.gz
Theta_e
322 317 316 316 315 316 316 314 314 313 313 313 312 313 313 312 313 317 318 319 322 323 325 325 325 323 322 320 319 316 314 310 309 309 310 309 308 307 305 304 304 303 303
324 319 317 317 315 316 316 314 313 313 313 314 313 314 316 319 320 319 321 321 318 323 325 324 324 323 323 320 318 317 312 312 309 310 311 308 308 307 306 304 304 303 302
326 323 318 317 317 315 315 314 313 313 314 315 317 321 323 321 321 321 320 319 322 325 325 325 325 323 323 321 318 316 313 312 310 310 311 306 305 306 307 306 304 303 302
325 324 321 321 320 318 316 315 314 315 316 319 322 321 322 320 320 320 320 321 322 326 326 325 325 324 322 320 318 315 313 312 311 310 310 309 307 303 302 306 305 303 302
325 324 322 323 322 320 318 319 320 318 321 322 322 322 323 322 320 320 323 324 325 325 326 325 324 323 321 319 317 314 314 313 311 311 310 309 308 306 304 301 303 304 304
326 323 324 323 323 320 319 319 321 321 322 323 324 326 327 322 323 324 325 326 326 327 327 325 323 322 320 318 316 315 314 311 312 311 310 308 307 306 305 301 302 302 302
326 325 323 323 323 322 321 320 321 322 323 324 326 325 325 326 323 324 326 326 325 326 325 324 323 320 319 318 316 314 312 310 311 310 310 306 304 304 303 302 300 299 300
324 325 325 324 323 323 324 323 323 322 323 325 324 325 325 326 326 326 326 326 325 324 322 323 322 320 318 317 316 312 310 309 309 309 307 306 303 303 303 302 300 297 297
323 324 325 325 325 324 324 325 325 325 326 327 328 327 327 328 327 326 327 326 325 325 324 323 321 321 318 317 316 312 312 309 309 308 305 304 303 303 301 300 300 299 295
324 323 323 325 326 326 325 325 326 327 326 327 329 328 329 328 329 328 327 326 325 325 324 322 321 320 318 316 314 312 310 309 307 304 304 302 302 302 302 302 301 299 298
320 321 323 326 325 327 328 328 327 327 328 327 328 330 330 329 329 327 328 327 325 324 324 323 321 318 316 313 312 308 308 306 303 302 301 301 301 301 302 300 301 300 299
320 320 322 324 324 328 329 328 329 329 329 328 329 331 330 329 327 328 326 325 326 325 324 322 319 316 314 312 310 307 306 303 303 301 302 301 302 301 299 300 300 299 298
317 321 322 322 324 324 328 328 330 329 330 329 331 331 330 331 329 327 326 327 326 325 322 319 316 312 311 309 307 305 304 302 301 301 301 302 301 299 298 298 298 298 298
317 320 322 324 326 328 330 332 331 331 330 331 332 330 330 327 326 326 325 325 324 322 317 316 313 310 308 307 305 304 301 299 300 300 300 299 299 298 297 297 297 298 297
317 318 323 324 326 328 330 331 334 334 333 332 331 330 327 326 326 325 325 323 321 317 316 313 311 308 306 305 304 302 300 301 299 299 298 299 298 296 296 296 296 296 297
316 316 325 327 330 330 329 327 329 331 332 330 325 324 324 323 322 320 318 317 315 314 312 309 307 306 305 303 301 301 299 298 297 299 298 297 296 296 295 295 296 296 295
316 317 322 329 329 329 327 325 326 325 325 323 321 321 320 317 315 314 313 312 311 310 309 307 305 303 300 301 300 298 297 297 297 297 297 296 295 294 293 292 292 292 292
320 321 325 325 327 327 325 324 324 320 320 319 318 316 314 312 311 311 308 306 305 305 302 300 299 298 298 297 297 297 297 296 296 296 295 293 291 290 290 289 289 289 288
319 321 324 324 324 323 323 321 316 315 314 312 310 309 308 306 304 302 301 300 300 299 299 298 297 297 297 298 297 297 296 295 293 292 292 291 289 287 287 286 284 281 280
319 318 320 320 320 319 319 315 312 311 310 309 307 306 304 302 301 300 299 298 298 297 297 297 299 298 297 297 296 295 294 292 291 290 288 286 283 283 282 281 281 281 283
316 317 316 314 315 315 314 311 310 308 308 307 305 304 303 302 301 300 300 300 299 299 299 297 297 296 296 294 294 292 290 289 287 285 282 281 281 280 280 281 282 283 283
313 313 312 311 312 312 311 307 307 307 306 305 304 303 302 301 301 300 300 300 299 297 296 294 293 292 290 288 288 287 286 284 281 279 279 279 278 279 282 282 282 281 280
311 311 310 310 310 309 308 305 305 305 304 303 302 301 301 300 300 299 299 298 298 295 294 292 288 285 284 285 285 285 282 279 278 277 277 277 280 281 281 279 279 278 279
309 310 309 308 307 308 306 305 304 304 303 302 301 301 300 299 296 294 294 293 292 291 290 289 287 285 284 283 283 280 278 277 277 277 278 279 280 280 278 278 277 277 277
309 309 308 307 305 305 304 303 303 302 301 299 297 295 293 291 290 290 290 289 287 288 288 286 286 285 282 281 279 277 277 277 277 277 278 279 278 277 277 277 276 275 275
308 307 307 303 302 302 302 302 301 299 296 293 292 291 289 288 287 287 283 282 282 282 283 283 282 281 280 277 276 276 277 277 278 278 278 277 276 275 275 275 274 274 274

GFSMW_925_thetae_048.txt.gz
Theta_e
318 317 316 316 315 316 316 316 316 318 318 315 317 317 317 317 316 315 314 315 317 321 321 322 323 323 322 321 320 319 316 314 310 308 309 307 307 307 307 305 305 305 305
318 317 315 315 315 316 316 315 315 316 315 314 314 314 315 315 315 314 314 314 314 318 321 323 324 324 323 321 321 320 316 311 310 309 309 307 309 308 306 305 304 304 304
320 317 316 315 315 315 316 315 314 315 315 315 314 314 314 314 314 314 314 314 316 317 321 321 324 323 324 321 321 319 317 313 310 309 310 306 307 305 307 306 305 304 303
322 318 317 316 314 315 315 314 314 313 313 313 313 313 314 314 314 314 315 315 318 321 320 321 323 324 324 321 322 319 317 316 311 310 309 309 307 304 303 306 306 304 303
324 319 317 316 315 314 314 314 314 314 313 314 314 314 317 319 320 320 320 318 319 321 319 322 324 325 324 322 322 320 316 315 313 310 310 309 309 307 303 303 303 305 304
325 322 318 317 317 315 314 314 314 313 314 314 315 317 321 320 321 320 320 319 318 318 321 322 325 324 324 323 322 320 316 314 313 312 311 310 309 307 304 302 302 302 304
322 325 320 319 318 317 314 314 314 314 314 315 316 318 321 321 320 319 318 320 321 322 324 325 325 325 324 323 320 319 316 313 315 312 311 311 311 308 305 304 302 300 300
321 323 322 321 322 319 318 315 316 317 316 317 319 320 321 323 322 322 322 321 321 323 325 325 324 324 323 321 319 317 315 314 313 311 312 310 310 304 303 302 301 298 297
322 324 322 322 322 321 319 317 317 318 318 318 320 321 322 323 324 325 324 323 323 325 325 325 325 324 321 320 318 317 315 313 311 311 309 308 306 303 303 300 300 299 299
322 324 323 322 323 322 321 318 317 318 318 320 321 322 322 323 324 324 325 325 324 325 325 324 323 323 321 319 318 316 313 311 310 310 308 304 303 303 301 302 302 302 300
322 322 323 323 323 322 322 322 321 321 321 321 322 322 323 324 325 325 326 326 325 326 325 325 324 322 320 320 318 315 312 310 310 307 305 304 304 302 302 302 301 301 300
318 321 321 323 324 324 323 322 323 323 323 323 324 325 326 327 327 327 327 325 325 326 325 324 323 321 320 319 315 312 311 310 307 305 303 303 301 302 302 300 299 299 298
317 319 320 322 324 324 325 324 324 324 325 326 325 326 326 328 327 327 328 321 325 326 324 324 323 321 320 317 313 311 310 307 304 303 303 302 302 301 299 299 298 296 296
314 319 319 322 323 322 325 326 326 326 325 326 327 327 327 328 327 328 327 324 322 325 324 324 323 321 318 315 312 309 306 304 303 303 302 301 300 300 300 298 297 295 295
314 316 320 321 321 323 324 324 326 326 327 327 327 328 327 327 328 327 327 326 325 325 323 322 319 315 313 310 307 305 304 303 302 301 300 300 298 299 297 296 295 294 294
315 314 320 321 324 327 329 329 327 327 328 328 328 328 326 325 324 326 326 325 323 321 320 316 314 311 308 307 306 305 303 301 300 299 298 298 299 297 295 294 293 291 290
313 312 319 324 326 328 329 327 328 329 329 328 327 322 323 322 321 322 322 321 317 315 313 312 309 307 306 305 304 303 300 300 298 298 298 297 296 294 293 291 291 290 289
313 312 321 325 327 326 326 326 325 325 324 322 320 319 317 316 316 317 316 313 312 310 308 306 305 305 304 302 301 299 298 297 297 296 296 294 291 290 289 288 286 284 281
313 315 323 325 325 324 323 323 322 320 318 316 315 314 315 312 310 308 309 309 307 306 304 303 302 301 300 299 298 297 296 296 295 293 291 290 289 286 284 282 280 280 282
318 320 322 322 321 321 319 317 314 314 311 312 311 311 310 310 308 307 305 305 305 301 299 298 298 297 297 296 296 296 296 295 292 290 288 286 284 281 280 280 281 282 282
318 320 320 319 317 317 316 311 310 309 309 310 309 308 307 306 305 303 301 300 299 298 297 297 297 297 297 296 296 295 294 292 289 287 284 281 279 278 279 282 282 281 280
314 316 314 312 313 314 314 308 307 307 308 306 305 304 303 301 300 300 298 297 297 297 297 296 292 291 291 292 292 290 289 287 285 281 279 278 278 280 281 280 279 278 277
311 312 310 308 309 310 310 306 304 305 304 304 302 301 301 300 300 299 299 298 298 296 292 289 286 284 284 284 284 284 284 281 279 278 277 278 279 280 279 278 278 276 275
308 308 307 306 305 306 306 306 304 304 304 301 301 301 300 299 299 299 298 298 296 293 290 287 284 282 282 281 280 279 278 277 277 277 278 279 279 278 277 276 276 275 274
307 307 306 304 303 304 303 303 303 304 301 300 299 297 296 295 292 291 291 292 290 291 290 288 286 283 281 280 279 278 277 277 277 278 278 277 276 276 275 275 274 273 272
306 305 303 302 301 301 301 301 302 302 300 294 292 290 290 287 286 285 283 284 286 286 286 286 286 283 281 277 277 277 277 278 278 277 276 275 274 274 274 273 272 272 271

GFSMW_925_thetae_051.txt.gz
Theta_e
318 317 317 317 316 316 317 318 318 318 319 319 321 322 323 321 322 320 320 322 322 322 324 324 323 323 323 322 321 319 316 313 312 308 307 306 306 306 306 305 306 306 305
317 316 315 316 315 316 316 318 317 318 319 320 320 319 318 315 316 318 317 316 316 316 320 320 321 324 323 322 320 319 316 315 313 309 308 307 309 308 307 305 305 305 305
319 317 315 315 315 315 315 316 317 317 316 317 317 319 318 318 316 316 315 314 314 314 314 319 323 323 323 322 320 319 319 315 312 310 310 307 307 306 308 306 304 304 304
321 317 315 314 314 314 315 315 316 317 317 315 315 315 315 315 315 315 316 315 314 314 314 317 319 321 323 324 323 321 319 318 312 308 309 309 309 305 305 305 306 306 305
322 318 316 315 314 314 315 315 315 316 316 315 314 314 314 314 314 314 314 315 315 314 314 317 320 319 322 322 323 322 319 318 315 312 310 308 307 308 305 306 306 305 306
323 320 317 316 315 314 314 315 315 315 316 315 314 313 313 314 314 314 314 314 315 314 313 317 321 321 323 323 324 322 320 320 315 315 314 310 310 307 305 303 304 303 305
324 322 317 316 315 314 314 314 314 313 314 314 314 314 313 314 315 315 317 317 314 314 315 317 319 321 321 323 324 323 321 320 317 315 313 311 312 310 308 306 303 302 302
323 323 320 317 316 315 314 313 313 313 313 313 313 313 314 315 317 318 319 319 319 320 320 320 318 320 322 323 320 323 322 320 318 314 312 313 311 310 309 304 302 300 298
318 323 322 318 317 316 315 313 313 313 313 313 313 313 314 315 317 320 320 320 320 319 319 318 320 321 323 324 323 323 321 319 317 314 313 312 311 310 306 303 303 300 299
317 319 322 321 319 318 317 315 314 314 314 314 314 314 315 316 318 320 321 321 320 320 322 322 321 323 324 324 323 322 319 317 315 314 311 310 309 306 304 303 303 301 301
321 319 320 322 321 320 319 318 315 315 315 316 316 315 316 318 319 320 320 321 322 323 324 323 323 324 324 323 321 319 318 317 314 311 310 309 307 304 303 303 302 302 301
320 320 321 322 322 321 321 319 318 316 315 316 317 317 317 319 320 322 323 323 324 324 323 324 324 322 323 322 321 318 317 316 311 310 309 306 303 304 303 302 301 299 298
314 317 319 322 321 322 322 321 320 318 317 317 317 318 319 320 321 322 323 323 323 324 323 323 323 322 321 320 319 317 318 314 311 309 307 304 304 303 301 300 299 298 297
313 315 317 319 322 322 321 321 321 321 320 320 319 319 320 322 323 324 324 325 325 325 324 324 324 322 322 319 317 317 315 311 309 307 305 304 303 301 300 300 298 296 295
312 315 317 318 319 322 322 322 322 321 322 322 322 322 322 323 324 325 325 326 326 326 325 321 324 322 320 316 316 314 311 308 306 303 303 302 301 300 299 297 297 295 293
315 312 317 318 319 320 321 323 323 323 323 323 323 324 324 325 325 325 325 325 325 323 320 320 321 319 316 315 316 313 309 306 304 303 301 300 299 298 297 297 295 293 290
315 313 313 319 319 320 320 321 322 323 325 324 324 325 325 325 325 325 324 322 320 319 318 316 315 315 315 313 311 308 305 304 302 301 299 298 297 296 295 293 291 290 288
314 312 310 317 321 322 324 325 326 325 324 325 326 325 325 325 323 323 321 319 318 317 315 314 314 311 309 308 307 305 302 301 299 298 297 296 294 291 290 290 288 286 282
314 312 311 317 322 324 326 327 325 327 326 324 323 322 322 320 318 316 315 314 314 311 311 310 308 307 305 303 302 301 299 297 296 295 294 292 290 287 288 286 282 280 281
310 313 317 321 323 323 325 323 321 322 321 319 317 317 316 315 312 312 311 309 309 307 306 304 303 302 301 299 299 298 297 295 293 290 288 291 288 285 281 280 280 282 281
315 318 320 321 321 320 320 315 315 315 315 315 315 313 311 311 310 309 307 306 304 302 299 298 298 299 298 296 296 296 296 294 290 289 286 284 281 279 279 281 281 280 279
316 318 316 314 316 318 317 311 309 310 313 311 309 307 307 307 306 306 301 300 298 296 294 293 292 293 293 294 295 294 293 291 289 285 282 279 278 280 281 280 279 278 276
311 313 311 308 311 313 314 308 305 306 306 306 303 302 301 301 300 300 297 296 295 291 289 288 286 285 286 285 286 288 288 286 283 280 278 278 279 280 279 278 277 276 275
309 308 308 306 304 308 309 308 305 305 304 301 300 299 298 298 297 297 296 295 293 291 289 286 283 282 282 282 283 283 281 279 278 277 278 278 279 278 277 276 275 274 273
307 307 305 303 302 304 304 304 303 304 300 298 296 295 295 295 293 292 292 293 292 293 292 288 286 283 281 280 280 279 278 278 278 278 278 277 277 276 275 274 274 272 272
304 303 301 301 300 300 300 300 301 302 298 292 291 291 290 288 287 286 284 286 288 290 290 288 287 283 282 278 277 277 277 278 278 278 276 275 274 274 274 273 272 271 271

GFSMW_925_thetae_057.txt.gz
Theta_e
321 319 319 319 318 319 320 320 321 321 320 319 319 320 320 320 319 318 318 319 321 317 317 317 317 317 317 318 318 315 313 311 309 307 306 305 305 305 306 306 306 307 307
322 320 319 318 318 318 318 319 320 321 320 320 320 321 319 321 321 320 319 320 321 317 317 317 317 318 317 317 318 317 316 314 312 311 310 314 311 307 306 306 305 306 306
322 320 318 318 318 318 319 319 319 320 320 320 320 321 320 319 320 321 320 319 319 317 317 317 318 319 318 318 320 319 318 315 313 311 315 315 318 312 309 307 306 306 305
323 320 317 317 317 318 318 319 318 319 319 320 320 321 318 317 319 320 320 318 317 318 319 320 319 320 320 320 321 321 319 317 316 311 311 312 312 315 314 308 308 307 306
323 322 318 317 317 317 316 318 318 318 319 320 320 319 318 318 320 319 320 319 320 320 317 316 316 317 318 319 322 321 320 319 317 315 313 310 308 308 312 316 309 308 309
323 322 319 317 317 316 316 316 318 317 318 318 319 319 318 318 316 317 319 317 316 317 316 316 317 316 315 316 318 320 321 321 317 316 314 314 311 308 308 312 312 311 309
323 323 321 318 316 314 315 315 317 318 316 317 318 317 317 318 316 316 318 319 315 315 315 315 315 314 314 314 315 316 319 320 321 320 318 316 316 313 312 310 310 312 309
323 324 322 319 317 315 315 315 316 317 317 316 316 317 318 317 318 317 317 318 316 315 315 315 315 315 315 315 315 316 315 317 320 321 319 319 320 318 312 312 309 305 304
323 324 322 320 318 317 316 315 316 317 317 317 316 315 315 316 316 317 316 317 317 316 315 315 315 314 315 316 316 317 315 318 319 321 322 319 319 316 313 311 311 312 311
322 323 324 320 319 318 316 316 316 316 316 316 316 316 315 315 315 315 315 316 316 316 316 316 315 315 314 315 315 318 318 319 318 319 320 320 318 316 315 310 310 310 311
321 322 324 322 320 318 317 316 315 316 316 316 316 316 315 315 314 314 314 315 315 316 316 315 316 316 316 318 320 319 319 319 320 319 317 317 316 316 314 311 309 308 307
319 320 321 323 321 319 318 316 316 315 315 315 315 315 315 315 314 315 315 315 315 316 316 316 316 315 317 319 319 319 320 321 320 318 316 315 313 314 313 310 308 305 304
315 320 318 321 322 321 319 318 317 316 315 315 315 315 314 314 314 315 315 315 315 316 317 318 318 319 319 319 319 318 318 321 320 318 315 314 313 311 309 307 304 302 302
316 316 319 320 321 321 320 319 318 317 316 315 315 315 315 314 314 314 314 314 315 316 316 317 318 319 319 319 319 318 321 319 317 317 317 317 313 311 309 305 303 302 299
317 316 316 320 321 320 321 320 320 319 317 316 316 316 315 315 315 315 315 315 316 316 317 318 319 319 319 319 319 319 320 316 317 316 317 312 312 311 308 305 303 301 298
317 317 316 315 318 320 321 321 321 320 319 318 317 317 317 316 316 316 316 316 317 318 318 319 319 320 320 319 320 319 318 316 315 312 310 309 307 305 305 304 303 301 298
316 316 316 316 317 318 320 321 321 321 320 320 319 318 317 316 316 317 317 317 318 318 319 320 320 320 321 320 320 319 316 313 312 310 307 304 303 302 301 300 298 296 294
315 315 316 316 315 315 317 319 320 321 321 321 320 319 319 318 318 317 317 318 319 319 320 320 320 320 319 319 319 318 311 310 308 306 304 303 300 300 299 296 293 291 290
313 312 312 313 313 313 315 318 319 320 320 321 321 320 320 320 320 319 319 320 320 321 321 321 320 318 316 315 313 309 306 303 301 300 300 301 298 295 296 293 290 287 284
314 312 311 310 311 312 313 317 319 320 321 321 321 320 320 320 320 320 321 321 319 317 315 311 310 310 310 306 305 305 303 298 295 293 292 295 294 291 291 291 289 283 283
313 315 316 315 315 316 318 319 320 320 316 317 319 320 321 321 320 318 315 313 310 306 303 301 299 299 301 299 301 303 299 296 291 289 288 287 290 290 288 285 282 282 280
312 312 313 312 313 316 319 317 311 312 316 317 315 313 313 312 310 310 306 304 301 297 293 293 292 293 295 296 297 297 297 293 292 287 286 285 284 283 281 280 280 280 279
310 309 309 308 306 308 312 309 306 309 309 306 303 302 302 302 301 301 297 295 293 291 290 288 287 286 288 288 292 293 292 292 289 286 283 282 282 280 280 279 279 278 277
306 305 305 304 302 302 302 303 304 306 305 300 297 297 296 295 295 294 293 293 292 290 289 287 285 284 284 285 286 286 286 285 283 281 281 281 280 279 279 277 277 276 275
296 297 297 297 296 296 296 298 298 299 296 294 292 291 290 290 289 289 290 290 291 292 289 287 286 283 281 281 283 284 283 282 281 279 279 279 279 279 278 277 276 275 274
290 291 290 290 289 290 291 292 293 293 293 291 290 289 288 287 286 285 284 284 288 289 289 286 286 282 281 280 280 280 279 279 278 279 279 278 278 278 277 276 275 274 273

GFSMW_925_thetae_060.txt.gz
Theta_e
327 323 323 324 324 323 324 322 322 322 320 318 319 320 320 319 318 320 320 319 320 321 321 320 320 321 320 320 319 319 317 315 313 311 311 311 311 310 310 311 311 312 312
328 325 323 323 323 324 324 322 322 320 320 320 318 320 321 320 319 321 320 319 321 321 321 321 321 320 321 321 321 319 319 317 313 316 317 318 314 312 311 311 311 311 312
330 327 325 323 323 322 321 323 323 320 320 320 320 320 320 319 320 320 319 319 322 323 321 320 321 321 321 322 322 321 320 320 317 317 320 322 322 321 316 313 312 310 311
329 328 326 324 323 322 322 322 322 323 321 321 320 321 319 319 319 319 319 320 321 323 322 320 322 323 322 322 322 322 322 321 321 317 317 319 320 322 322 315 313 311 309
329 328 327 324 322 322 321 321 321 322 321 321 321 320 319 319 318 319 320 321 321 322 321 320 323 323 321 322 322 322 321 322 322 321 320 318 318 316 317 319 317 312 311
328 328 326 324 323 322 321 320 320 321 320 321 321 321 320 319 318 320 319 319 319 320 319 317 320 322 319 317 316 318 322 322 322 322 321 321 319 318 316 313 314 316 313
328 328 328 326 324 322 321 320 320 320 321 320 321 321 322 320 318 319 319 319 320 319 319 319 321 319 316 315 315 316 320 321 323 322 322 321 320 320 316 312 313 314 314
327 328 328 326 325 322 321 320 320 320 320 321 321 322 322 321 318 318 318 319 318 318 318 318 318 318 316 315 318 320 320 321 322 322 322 322 322 320 317 317 313 312 313
327 328 328 327 325 323 321 320 320 321 321 320 320 320 322 322 320 319 318 318 319 317 317 318 317 318 319 318 319 319 319 320 321 322 322 322 322 321 318 318 316 313 316
326 328 329 327 326 324 322 320 320 321 322 322 322 322 323 322 322 321 319 319 319 319 319 318 317 317 319 319 320 320 320 320 321 322 322 322 321 321 318 317 318 314 314
327 328 328 327 326 325 323 322 320 320 321 322 322 322 322 321 322 321 320 321 320 320 320 320 319 319 318 319 319 319 319 319 320 322 322 321 320 319 318 316 315 313 312
323 326 328 328 326 326 325 323 322 320 320 321 322 322 321 321 320 320 321 321 321 321 320 320 320 320 320 319 319 320 319 320 321 322 322 321 320 319 318 315 313 311 311
322 325 326 328 328 326 325 324 323 322 321 320 320 321 321 321 321 321 320 320 320 320 321 320 320 320 320 320 320 319 320 321 322 321 320 319 319 318 317 314 311 309 308
322 322 325 325 326 326 326 325 324 323 322 321 320 320 321 321 321 320 320 320 320 319 319 319 319 320 320 319 319 319 320 320 320 319 317 317 318 317 315 313 311 307 305
321 322 322 323 324 325 326 325 324 324 323 322 321 321 321 320 320 320 320 319 319 319 319 319 319 319 320 320 320 321 321 319 318 318 317 318 318 317 316 312 310 305 303
320 321 322 321 321 323 324 325 325 324 323 323 322 322 321 321 320 320 319 319 319 318 318 319 319 319 320 320 320 320 321 320 318 318 317 316 318 316 312 311 310 306 300
319 319 319 319 320 320 321 324 325 325 324 323 322 322 321 321 321 320 320 320 319 319 319 319 320 320 321 321 320 320 320 320 318 318 316 313 312 311 308 304 302 299 299
320 320 320 320 317 318 318 321 323 325 325 324 324 323 322 322 321 321 321 321 320 320 321 321 321 321 321 321 320 320 320 319 317 315 313 311 306 305 305 299 297 296 296
319 319 318 318 317 317 316 317 319 322 324 325 325 324 323 323 322 321 321 321 321 322 322 322 322 322 322 321 321 320 317 313 310 308 306 304 301 297 297 294 292 288 287
317 318 319 320 320 318 317 316 319 320 322 323 324 324 324 323 323 323 322 322 322 322 320 319 318 318 317 316 314 313 311 305 301 298 296 297 296 293 295 295 292 286 284
315 316 318 318 316 317 320 320 320 321 322 323 323 323 323 323 323 323 318 314 316 312 307 305 302 303 302 302 302 303 301 296 291 289 288 289 290 290 291 290 288 286 283
313 313 313 312 308 309 318 321 316 315 317 315 313 313 314 315 313 313 309 307 305 300 295 294 292 292 293 295 297 299 298 292 291 287 287 287 289 287 285 285 283 282 281
306 307 306 303 301 301 305 306 304 304 303 302 300 300 300 301 300 299 296 295 294 292 289 288 287 286 287 287 289 290 291 291 288 286 285 283 282 281 280 280 280 279 280
299 299 299 295 294 294 295 298 299 300 298 296 294 293 292 292 292 292 292 292 291 290 288 287 285 284 283 284 286 286 286 286 284 283 282 281 281 280 279 279 279 279 278
294 293 293 291 290 290 290 292 295 296 293 292 291 289 288 287 286 286 287 288 289 290 287 285 284 283 282 282 284 285 284 283 282 282 281 281 281 280 280 280 278 278 277
290 290 289 288 288 288 288 288 290 292 291 290 289 289 288 287 285 284 283 283 286 288 287 286 285 282 281 282 282 282 281 281 281 282 282 282 281 281 280 279 278 277 276

GFSMW_925_thetae_063.txt.gz
Theta_e
331 328 325 326 327 328 328 326 324 322 320 321 321 321 322 320 319 320 321 320 319 318 317 319 320 320 319 318 318 318 317 316 315 314 315 315 315 315 315 314 314 314 315
331 329 326 326 327 327 326 324 324 322 320 320 321 321 321 321 320 319 321 321 317 320 316 320 320 321 321 320 320 320 320 318 315 314 314 317 316 315 315 314 313 313 314
331 330 328 326 327 327 326 325 322 322 320 320 320 321 320 320 319 320 319 319 321 320 321 322 322 321 323 323 322 322 322 320 318 317 320 321 321 320 316 314 314 314 314
330 331 329 327 326 326 325 326 324 321 322 320 319 320 320 321 319 318 321 318 318 321 321 319 321 322 322 323 323 324 323 322 322 320 319 321 322 324 323 318 316 315 313
329 331 330 327 326 326 325 323 325 324 323 323 321 320 320 321 321 319 320 320 317 320 321 321 320 322 323 323 324 324 324 324 322 323 322 321 321 322 322 324 318 316 314
327 330 329 328 326 325 325 324 323 324 324 322 322 321 320 320 320 321 320 319 319 320 320 321 320 318 322 323 323 322 324 324 323 322 323 322 322 321 321 321 322 320 317
327 330 330 330 326 325 325 324 323 323 323 323 322 322 321 321 320 320 320 320 319 321 322 322 322 320 318 320 319 322 322 323 324 324 323 322 323 322 321 321 320 321 319
327 329 330 330 327 325 325 325 323 324 323 322 322 322 322 323 320 319 319 320 320 320 322 323 323 322 319 318 320 319 318 318 318 322 323 322 321 322 322 321 320 323 319
326 328 329 330 328 326 325 325 323 323 323 323 322 322 322 322 322 320 320 319 320 321 321 321 322 322 321 321 320 319 317 318 319 319 321 322 322 321 322 322 321 322 323
324 328 329 330 329 327 325 324 323 324 324 323 323 322 323 323 323 322 322 320 320 322 322 322 321 320 321 321 321 320 318 319 320 321 321 322 322 322 322 322 321 320 320
327 328 329 329 329 328 326 325 324 323 324 324 323 323 322 324 324 323 323 322 321 321 321 320 320 320 319 319 319 320 321 320 321 322 322 322 322 323 323 323 322 320 317
324 328 330 330 330 329 328 326 325 323 323 325 325 324 324 324 324 324 324 324 323 322 322 322 320 319 320 320 320 320 321 321 321 322 322 322 322 322 323 323 321 319 317
324 326 329 330 330 330 329 328 326 325 323 323 325 325 326 326 326 326 325 325 324 324 323 323 323 322 321 322 321 321 321 322 322 322 322 322 322 323 322 320 319 317 315
323 323 326 328 330 329 329 329 328 327 325 324 324 325 325 325 325 325 325 325 324 324 324 323 323 323 323 323 323 323 323 322 322 322 322 322 323 322 321 319 316 315 314
322 323 323 324 325 327 328 328 328 328 327 325 324 324 325 325 325 325 325 324 324 324 324 324 324 324 324 324 323 323 323 323 323 322 322 322 322 321 320 318 316 315 312
323 322 322 322 322 322 324 327 328 328 327 327 326 325 325 325 325 325 325 325 324 324 324 323 323 323 323 322 322 322 323 322 322 322 322 321 320 319 319 318 317 316 312
322 322 322 322 322 321 320 322 325 327 327 327 327 326 326 325 325 325 324 324 324 324 324 323 323 323 323 322 321 321 320 321 323 323 322 320 319 318 317 316 316 314 309
320 321 322 322 322 322 321 320 320 323 327 327 327 326 326 326 325 325 324 324 324 324 324 323 322 322 323 322 321 321 320 320 321 321 321 321 319 317 314 311 305 302 300
318 319 319 321 322 322 322 321 319 319 322 326 327 327 326 325 325 325 325 325 324 324 324 324 323 323 323 322 322 322 322 320 319 318 318 317 314 308 306 303 295 292 290
316 316 317 317 312 310 314 321 322 321 320 321 324 326 326 326 325 325 326 325 325 325 324 323 316 318 319 320 321 320 319 313 305 302 300 300 301 295 293 296 292 288 286
313 312 314 310 302 300 303 319 321 321 322 324 324 324 325 326 326 326 325 324 320 314 310 305 301 302 302 303 305 309 308 301 293 291 289 289 289 289 291 292 290 287 285
308 308 309 304 297 296 296 301 303 305 307 310 307 306 307 311 313 311 311 312 310 302 295 294 291 290 291 294 297 298 299 295 292 286 286 285 288 289 289 287 285 284 283
305 302 302 299 295 292 293 293 296 298 298 297 296 295 297 297 299 299 297 296 295 293 290 289 287 285 286 286 288 289 290 289 286 284 283 283 284 284 282 281 281 282 283
301 298 297 294 292 291 290 290 292 294 293 292 291 290 289 289 290 291 292 292 290 289 288 286 285 284 284 284 284 285 284 283 282 282 282 282 282 282 281 280 280 280 281
295 294 293 291 289 288 288 288 292 291 291 290 289 288 287 286 285 285 285 286 287 288 286 285 284 284 283 283 284 284 283 283 283 282 282 282 282 282 281 280 280 279 279
288 288 288 287 285 286 285 285 288 289 288 287 287 286 286 285 284 284 283 283 283 284 284 283 283 282 282 282 282 282 282 283 284 284 284 283 283 283 282 281 280 279 278

GFSMW_925_thetae_069.txt.gz
Theta_e
329 326 326 329 329 330 329 327 326 326 324 323 323 322 324 324 324 323 324 325 324 325 325 323 321 325 323 323 324 321 320 320 320 319 319 320 320 321 321 321 320 319 318
329 325 325 327 328 329 329 326 325 325 324 322 323 322 321 322 323 323 322 323 324 324 324 324 323 322 323 323 321 321 321 320 320 318 318 315 317 320 319 319 320 320 319
328 325 325 325 328 328 328 326 325 324 323 322 322 321 321 321 321 321 322 322 321 322 322 322 321 320 322 321 320 320 319 318 317 316 317 314 315 314 316 317 317 317 317
328 325 325 324 327 327 327 326 324 323 323 322 322 321 320 320 320 320 320 320 321 322 320 321 321 320 319 318 319 318 318 317 316 316 316 316 318 316 316 315 315 315 315
328 326 324 325 326 327 327 325 324 324 322 322 322 320 319 320 319 319 319 319 320 320 319 320 319 318 318 317 318 318 318 316 315 316 315 315 317 320 318 315 315 315 315
328 326 324 326 326 327 326 325 323 321 322 322 321 320 319 319 318 319 320 319 321 320 320 320 318 317 318 320 319 318 318 318 319 319 317 315 317 319 320 316 316 315 315
328 327 325 325 325 326 325 324 323 321 322 321 322 321 320 319 318 318 320 320 320 320 320 319 318 321 319 319 321 320 321 321 321 321 319 319 319 319 320 320 318 317 318
328 327 326 325 325 326 325 324 323 322 321 321 321 321 321 320 319 318 319 320 320 320 320 319 319 320 319 320 320 321 321 319 319 319 320 321 321 320 320 320 320 316 317
321 328 326 325 325 326 325 324 324 323 322 322 321 321 320 321 320 319 318 319 319 319 319 319 320 320 319 321 320 320 321 320 319 318 317 319 320 319 320 319 319 319 318
321 325 327 325 325 326 325 325 325 324 323 322 322 321 321 320 320 320 319 318 318 319 319 318 318 319 320 321 320 319 319 320 319 319 319 318 317 318 319 319 319 320 319
320 320 327 326 325 326 326 325 324 323 324 323 322 321 321 321 320 320 321 320 318 318 319 318 318 319 319 319 320 320 320 319 319 319 318 318 318 319 320 319 320 320 319
321 321 327 326 325 325 326 325 324 324 323 323 323 321 321 322 322 321 320 320 320 319 319 319 318 319 320 320 320 319 320 320 319 318 317 318 318 319 319 319 320 320 319
321 321 323 324 326 325 325 326 325 324 324 324 322 322 321 322 322 322 322 321 320 320 319 319 318 318 320 320 320 320 320 320 319 319 318 318 318 318 319 320 320 320 320
322 321 321 322 323 323 325 325 325 325 324 324 323 322 321 321 321 322 321 322 321 321 320 319 319 319 319 320 321 321 321 321 320 320 319 319 318 318 318 319 320 320 320
322 321 322 321 319 319 318 319 321 325 325 324 324 324 323 322 321 321 321 323 322 322 321 320 319 319 320 320 321 321 321 321 321 320 320 319 319 319 320 320 320 320 320
319 320 319 316 314 312 312 313 315 318 322 325 324 325 324 324 323 322 322 322 324 323 323 322 322 321 320 321 321 321 321 320 320 319 319 318 318 319 319 320 320 320 320
318 317 313 310 307 305 306 308 314 313 317 315 315 322 324 325 325 324 323 323 323 324 324 324 324 323 322 322 321 321 321 320 319 319 319 319 319 320 320 320 321 320 319
314 311 307 304 301 300 301 305 306 306 307 307 308 309 310 312 320 326 326 326 325 325 325 325 325 324 324 324 323 323 323 321 321 321 321 322 322 322 322 322 319 314 311
309 305 301 299 297 297 298 300 300 300 301 301 303 304 302 304 307 315 325 326 325 325 325 325 324 324 324 323 324 324 324 321 320 320 319 319 320 321 320 320 311 299 293
304 301 297 295 294 294 296 297 297 297 297 296 297 297 296 298 299 303 307 322 325 325 324 322 318 319 318 313 317 320 320 316 314 308 305 305 307 307 311 314 301 289 286
300 298 295 293 291 291 293 294 294 294 293 292 292 291 291 293 293 297 298 302 310 315 311 307 302 302 302 304 309 313 317 313 300 295 292 292 294 294 294 292 288 286 286
294 294 292 290 288 288 289 291 291 291 290 289 288 287 288 288 290 291 292 294 294 292 290 289 288 287 287 289 293 299 299 293 291 287 287 287 288 289 289 287 285 286 285
290 290 289 288 287 286 287 288 289 289 288 287 286 286 285 286 287 287 287 289 289 288 287 286 286 285 284 284 284 285 286 286 285 284 284 283 283 284 284 284 284 284 283
288 287 287 286 286 285 286 286 288 288 287 286 285 285 284 284 285 285 285 285 285 285 285 285 285 284 284 283 283 282 282 283 283 282 282 282 282 282 282 282 282 282 281
286 285 285 285 285 285 285 285 287 287 286 286 285 284 283 283 283 283 283 283 283 284 284 284 284 284 284 284 284 284 283 283 283 282 282 281 280 280 279 279 278 278 278
284 284 283 283 284 284 284 284 285 286 286 286 285 285 284 282 282 281 281 282 282 282 283 283 283 283 284 284 284 284 284 283 282 281 281 280 280 279 278 276 276 276 276

GFSMW_925_thetae_072.txt.gz
Theta_e
326 325 327 327 328 327 327 326 325 325 325 324 324 325 324 326 327 327 327 327 327 324 320 317 317 314 312 318 320 322 321 319 320 320 319 321 320 319 319 318 316 316 316
325 324 326 326 327 326 326 325 324 324 324 325 323 323 324 325 326 326 327 327 327 326 322 317 321 320 316 316 319 321 319 319 320 319 318 315 317 319 319 319 318 318 317
327 324 326 325 327 326 326 326 325 324 324 323 322 322 321 323 324 324 324 325 326 326 324 320 323 324 321 320 323 322 319 319 319 319 318 314 316 315 318 319 319 319 319
327 324 325 325 326 326 326 326 325 325 324 323 322 321 320 321 322 323 323 325 324 324 324 324 321 324 324 322 323 322 320 319 318 317 318 318 317 315 314 316 317 319 320
327 325 324 325 326 326 325 325 324 324 323 323 322 322 320 321 320 322 322 322 323 323 322 323 324 323 323 323 322 319 318 319 318 317 316 317 317 316 314 313 313 314 316
326 325 324 325 325 325 325 324 323 323 323 322 322 321 321 320 319 320 321 320 321 322 322 321 322 320 321 322 322 318 320 318 317 316 317 316 317 318 318 314 313 314 315
326 324 323 324 325 324 324 322 322 321 322 322 322 321 320 320 320 319 319 320 320 320 320 320 321 321 321 319 319 319 319 317 316 316 315 315 315 316 317 318 317 315 317
325 323 324 324 325 324 323 323 322 321 321 322 322 321 320 319 319 319 319 319 319 320 320 319 319 319 318 318 319 319 319 318 317 316 316 318 318 318 320 320 318 316 317
325 324 324 324 325 325 323 323 321 321 320 321 322 321 320 319 318 318 319 319 319 319 319 320 320 319 319 318 318 319 321 318 318 319 320 320 319 318 320 320 320 319 319
325 325 324 324 325 325 324 323 322 321 321 321 321 321 320 320 319 318 318 319 319 319 319 319 320 319 319 319 320 319 319 320 321 321 320 319 318 317 317 318 319 318 319
319 325 324 323 324 324 323 323 322 322 321 321 320 321 320 320 320 319 319 318 318 319 319 319 319 319 320 320 320 320 320 320 320 321 320 319 318 317 317 317 318 318 318
323 324 323 322 324 324 323 323 323 323 322 321 321 321 320 320 320 320 320 319 318 317 318 319 318 318 318 320 320 320 320 320 319 319 319 319 318 318 317 317 317 318 318
323 322 322 322 322 323 325 324 322 322 323 323 322 321 321 321 320 320 320 320 320 318 317 318 318 318 318 318 319 319 319 320 319 319 319 318 318 318 318 318 317 318 318
322 319 317 317 317 317 317 318 321 323 322 322 322 321 321 321 321 321 321 320 320 320 320 319 318 318 318 318 319 319 319 319 318 319 319 318 317 317 317 317 317 317 317
316 314 314 312 310 310 311 315 315 316 320 323 323 322 321 320 321 321 321 321 321 320 320 320 320 319 319 318 318 318 319 319 319 318 318 318 318 318 317 317 317 317 317
314 310 307 305 304 304 307 308 308 308 310 311 316 319 322 322 321 321 321 321 321 321 321 320 320 319 319 319 319 318 318 319 320 319 319 319 319 319 319 319 318 318 318
308 305 303 301 299 300 302 302 303 303 303 305 306 305 307 312 318 321 321 320 320 321 321 321 321 321 320 319 319 319 319 319 320 320 320 320 319 319 319 319 319 318 318
303 300 298 296 296 297 298 299 299 299 299 300 300 300 301 302 304 308 313 321 321 321 321 322 322 322 322 322 321 321 320 319 320 321 320 319 319 319 318 317 316 316 315
298 296 294 293 293 293 296 297 295 295 294 294 295 295 296 298 299 300 301 304 311 321 322 322 323 322 322 322 323 323 321 318 319 319 320 320 319 319 319 318 316 308 298
295 293 292 291 290 291 294 294 293 292 291 290 290 291 292 294 293 295 296 298 301 309 317 305 301 299 303 303 311 317 316 317 317 313 307 307 308 311 314 315 307 290 286
293 292 290 289 288 289 291 292 291 290 289 287 287 287 288 289 289 290 292 293 294 292 291 290 288 287 288 288 295 305 310 307 294 290 290 290 293 295 296 294 290 287 286
291 290 289 288 287 288 289 290 289 288 287 285 285 285 285 286 286 287 288 289 289 288 287 287 285 284 284 284 285 290 290 290 289 286 285 285 285 285 284 285 285 284 285
288 288 288 287 286 286 287 288 288 287 286 285 284 284 283 284 284 285 285 286 287 287 286 286 285 284 284 283 283 283 285 284 283 282 282 283 283 282 282 283 283 283 282
286 286 286 286 285 285 285 287 287 286 285 284 284 283 283 283 283 284 284 284 285 285 285 285 285 284 284 283 283 283 283 283 284 283 283 283 283 283 283 282 281 281 280
284 284 284 284 284 284 283 284 285 285 285 285 284 283 282 281 282 282 282 283 283 283 283 284 284 285 285 284 284 283 283 282 282 281 281 280 279 278 277 277 278 278 278
281 281 281 281 282 282 281 282 283 284 283 283 282 281 281 281 280 280 280 280 281 281 282 282 282 282 282 282 282 282 282 281 280 279 278 278 277 276 276 276 275 275 275

GFSMW_925_thetae_075.txt.gz
Theta_e
323 323 326 327 327 328 329 329 328 327 326 325 325 327 325 324 327 327 326 325 327 325 323 322 320 318 316 316 316 317 317 317 321 320 318 317 317 317 317 316 316 316 316
322 325 325 326 326 326 327 327 327 326 325 324 325 325 324 323 326 327 327 327 326 323 323 319 317 316 313 314 315 317 317 317 320 319 318 315 317 317 317 317 317 316 315
324 326 325 326 325 325 325 326 326 325 324 323 323 323 323 322 325 326 327 327 325 324 322 318 316 315 313 314 316 318 318 318 319 319 319 315 318 317 318 317 317 317 316
324 326 326 325 325 324 325 325 324 325 325 324 322 321 322 323 322 323 326 325 326 325 323 318 318 315 314 316 318 320 321 318 318 318 319 319 317 317 314 316 318 319 319
325 324 326 325 326 325 324 324 323 323 323 323 321 321 321 321 322 322 324 324 323 326 323 319 320 321 316 317 319 320 320 320 318 318 318 317 315 317 314 314 314 317 318
324 324 324 325 326 325 324 323 324 324 323 323 322 322 321 320 320 321 322 323 323 323 324 324 321 321 321 322 318 321 321 318 318 318 318 317 317 317 317 313 312 314 315
322 323 323 324 325 324 323 322 323 322 322 323 322 322 321 320 319 321 321 322 322 323 322 322 323 321 318 322 322 320 320 318 318 316 317 318 317 317 316 317 316 315 316
322 323 323 324 325 325 323 322 321 321 321 321 321 322 321 321 319 319 321 321 321 322 322 322 323 323 322 320 322 322 321 321 320 319 317 316 317 318 316 318 317 314 314
323 323 323 324 324 324 323 323 321 320 321 320 321 321 321 320 319 319 318 320 320 321 321 321 320 321 321 320 320 320 319 319 319 319 318 317 316 316 316 316 317 318 317
323 322 323 324 325 324 323 322 322 321 320 319 320 320 320 320 319 319 319 319 318 318 320 319 319 319 320 320 321 319 319 319 319 319 318 318 317 317 318 319 319 320 319
323 323 322 322 324 323 323 322 321 320 319 318 319 320 321 320 320 319 319 318 319 319 319 319 320 319 319 319 319 318 319 319 319 319 319 318 318 319 319 320 319 317 317
323 323 323 322 322 322 322 321 320 320 319 320 320 318 320 320 320 319 319 319 318 319 319 319 319 319 319 319 319 319 319 319 319 319 319 319 319 320 320 318 318 317 317
317 317 317 317 318 321 321 323 322 321 320 321 320 319 319 320 320 320 320 319 319 318 318 318 318 318 318 319 319 320 319 319 319 319 319 319 319 319 318 317 317 317 317
313 311 310 311 312 315 316 315 316 320 322 322 321 319 320 320 320 320 319 320 320 320 319 318 318 318 318 318 318 318 319 320 320 319 319 319 319 318 318 318 317 317 317
310 309 307 306 306 308 307 308 309 309 314 321 322 321 321 321 320 320 320 320 320 320 320 320 319 318 318 317 317 317 317 318 318 318 318 319 319 319 318 317 317 317 316
305 303 303 302 302 301 302 302 302 303 306 307 307 309 312 317 320 320 320 320 320 320 320 320 320 320 319 318 318 318 317 317 318 318 317 317 317 317 318 318 318 317 316
301 300 298 297 297 298 299 298 298 299 300 300 300 301 303 305 307 310 314 318 319 320 320 320 320 319 319 319 319 319 318 317 318 318 318 318 318 318 317 317 318 318 317
298 297 295 294 294 296 296 295 294 293 294 294 295 296 297 299 300 301 302 305 308 311 317 320 320 320 320 318 320 319 319 318 318 318 318 319 319 319 319 318 318 317 317
295 293 292 292 292 294 294 293 291 291 290 290 291 292 293 294 294 295 295 296 299 300 302 305 305 307 307 301 311 316 317 316 317 318 318 315 316 318 319 319 317 316 307
292 291 290 290 290 291 292 291 289 288 288 287 287 289 289 290 290 292 291 292 291 289 291 291 290 290 290 293 298 302 307 306 311 305 299 295 295 302 307 310 310 296 287
291 290 289 288 288 290 290 289 288 287 286 286 286 286 286 287 287 288 289 289 289 289 288 288 287 287 287 287 291 297 299 293 290 287 286 286 286 288 290 294 291 288 285
289 289 288 287 287 288 289 288 287 285 285 284 284 284 284 285 286 286 287 287 287 287 286 286 285 284 284 284 284 285 288 290 288 284 284 283 283 283 284 284 284 285 285
287 287 287 287 286 286 287 287 286 285 284 283 283 283 283 284 284 284 284 285 285 286 286 285 285 284 283 283 283 282 282 282 282 281 281 281 281 281 281 282 283 283 281
286 286 286 285 285 284 285 286 286 285 284 283 282 282 282 282 282 283 283 284 284 284 284 284 284 284 284 284 283 283 282 282 282 282 281 280 280 279 279 280 279 278 278
283 283 284 283 282 282 283 283 284 283 283 282 281 281 281 281 281 281 281 281 282 282 282 282 282 282 282 282 282 282 281 281 281 281 280 278 277 277 276 276 276 276 275
281 281 281 281 281 280 281 282 283 282 282 281 280 280 279 279 279 279 279 279 280 280 280 280 280 280 280 280 280 279 279 279 280 278 276 276 275 275 274 274 274 273 273

GFSMW_925_thetae_078.txt.gz
Theta_e
315 322 326 328 329 331 329 328 330 328 327 326 324 323 323 324 324 325 326 325 324 326 327 327 325 323 323 323 320 318 318 319 318 317 316 316 317 317 318 317 317 317 316
318 322 325 327 327 327 326 327 327 328 328 325 324 323 323 324 325 327 325 323 323 323 324 323 323 322 319 319 318 317 316 318 319 318 317 316 316 316 317 317 317 317 316
318 324 324 325 325 326 326 326 326 328 325 324 324 324 323 323 325 326 324 324 325 325 324 324 322 320 318 317 318 317 316 318 319 319 318 315 318 316 317 316 316 316 316
317 324 324 324 325 325 325 325 325 326 323 323 322 323 322 323 324 326 326 325 326 324 322 321 322 318 317 316 317 317 316 318 318 318 318 320 318 318 314 316 317 316 316
321 325 325 325 325 325 324 325 325 324 323 322 322 322 322 322 323 324 325 326 325 324 322 320 321 317 315 314 315 316 317 317 318 318 318 317 316 318 314 314 315 317 317
322 323 323 325 325 324 324 324 324 324 321 320 321 321 321 322 322 322 322 324 325 323 323 321 319 316 314 313 314 315 318 318 318 319 319 318 316 316 315 312 313 316 318
316 322 324 324 325 324 324 324 322 321 320 319 319 321 321 321 321 322 322 322 322 323 321 323 320 316 314 313 313 317 318 320 320 318 318 317 318 318 318 315 314 313 314
314 322 323 324 325 324 324 322 321 320 319 319 318 321 321 321 320 320 321 321 322 322 321 321 321 319 318 314 317 317 319 320 318 318 318 317 316 316 317 317 315 314 314
315 320 322 324 324 324 323 322 321 320 320 320 319 319 321 320 320 319 319 321 321 322 322 322 322 320 317 319 319 319 320 320 320 319 319 319 319 318 317 316 317 316 316
322 322 323 323 324 324 323 322 320 320 320 320 319 318 319 320 320 320 319 319 320 321 321 321 321 322 322 321 319 318 320 321 321 321 321 320 320 319 318 317 316 317 316
323 322 323 323 324 323 322 321 320 320 320 319 319 319 319 318 319 319 319 319 319 319 319 320 321 321 321 321 321 320 320 321 321 320 319 319 319 318 318 316 316 317 317
320 323 322 322 322 322 321 321 320 320 319 319 319 319 319 318 320 319 319 319 318 319 318 318 319 319 319 319 320 320 320 320 319 318 318 318 318 318 317 317 317 317 318
312 314 317 321 322 321 321 320 320 320 319 319 319 318 318 319 320 320 320 319 319 318 318 318 319 319 319 319 319 319 319 318 318 318 318 318 318 318 318 318 318 318 318
309 309 308 311 311 312 313 313 314 318 320 319 319 319 318 318 319 320 320 320 319 319 318 318 318 318 318 318 319 319 319 319 319 319 319 318 318 318 318 318 318 317 317
304 305 305 305 305 305 305 305 306 308 316 319 317 315 318 319 320 320 320 319 319 319 319 319 319 318 318 318 318 317 318 318 318 319 319 319 319 319 318 318 318 318 317
301 300 299 300 301 300 300 299 300 301 304 304 304 305 309 312 314 316 318 319 320 320 319 319 320 319 319 318 318 318 317 317 317 317 317 318 318 318 318 318 319 318 318
299 298 297 296 296 296 295 295 295 296 296 297 298 298 300 301 302 305 308 309 311 313 316 318 319 320 319 318 318 318 318 317 317 317 317 317 317 317 317 317 317 317 318
297 295 294 294 294 293 293 292 291 291 291 292 293 294 295 296 297 298 299 300 300 302 303 304 307 310 301 300 304 311 316 316 317 317 317 315 315 315 314 315 316 316 315
294 292 292 292 292 292 290 290 289 288 288 289 290 290 291 292 293 293 293 293 293 292 291 291 293 294 294 298 301 305 309 309 307 303 297 297 299 300 304 303 303 300 291
291 291 290 290 290 291 289 288 287 287 287 287 287 288 289 289 290 290 290 290 289 287 287 287 287 287 288 291 296 301 301 300 294 291 290 288 288 292 297 302 302 290 287
290 289 289 288 288 289 288 287 286 285 285 285 285 285 286 287 287 288 288 288 287 287 286 285 284 284 284 284 288 291 290 288 285 284 284 283 284 284 285 288 287 285 284
288 288 288 287 287 288 287 286 285 284 284 284 284 284 284 285 285 285 285 286 286 286 285 285 284 284 283 283 283 283 283 284 282 281 280 281 281 281 281 281 281 281 281
287 287 286 285 285 285 286 285 284 283 282 283 283 282 283 283 283 284 284 284 284 284 284 284 284 283 282 282 282 282 280 281 280 280 279 281 282 282 281 282 282 282 280
285 285 284 284 283 283 283 284 284 283 282 282 282 282 281 281 281 281 282 282 282 282 282 282 282 282 282 281 282 283 282 282 282 282 280 279 279 278 277 277 277 277 276
283 282 282 282 281 281 282 282 282 282 281 281 280 279 280 280 280 280 280 280 280 281 280 280 280 280 280 280 280 280 280 280 279 280 279 277 276 275 274 274 274 274 274
280 280 280 280 279 279 280 281 281 281 280 279 279 279 278 278 278 278 277 278 278 278 278 279 279 279 279 279 278 278 277 278 279 277 273 273 272 272 272 271 271 271 270